Wetterdaten: Mittwoch, 26.08.2009
Datum Zeit Temp. Innen Temp. Aussen UV X Diff Temp. Feuchte Inne Feuchte Auss Sonnenschein Luftdruck Regen ab 0,1 Wind Sonnenschein Windben
26.08.2009 00:04 23,3 C 16,7 C 0,0 UV-I 0,0 C 60 % 82 % 0 % 1014,8 hPa 0,0 l/m 0,0 km/h (0 Bft) 0 min 0,0 km/h (0 Bft)
26.08.2009 00:09 23,2 C 16,4 C 0,0 UV-I 0,0 C 60 % 83 % 0 % 1014,8 hPa 0,0 l/m 0,0 km/h (0 Bft) 0 min 0,0 km/h (0 Bft)
26.08.2009 00:14 23,2 C 16,4 C 0,0 UV-I 0,0 C 60 % 83 % 0 % 1014,8 hPa 0,0 l/m 0,0 km/h (0 Bft) 0 min 0,0 km/h (0 Bft)
26.08.2009 00:19 23,2 C 16,3 C 0,0 UV-I 0,0 C 60 % 83 % 0 % 1015,1 hPa 0,0 l/m 0,0 km/h (0 Bft) 0 min 0,0 km/h (0 Bft)
26.08.2009 00:24 23,2 C 16,1 C 0,0 UV-I 0,0 C 60 % 83 % 0 % 1015,1 hPa 0,0 l/m 0,0 km/h (0 Bft) 0 min 0,0 km/h (0 Bft)
26.08.2009 00:29 23,2 C 16,0 C 0,0 UV-I 0,0 C 60 % 84 % 0 % 1015,1 hPa 0,0 l/m 0,0 km/h (0 Bft) 0 min 0,0 km/h (0 Bft)
26.08.2009 00:34 23,1 C 15,8 C 0,0 UV-I 0,0 C 60 % 84 % 0 % 1015,1 hPa 0,0 l/m 0,0 km/h (0 Bft) 0 min 0,0 km/h (0 Bft)
26.08.2009 00:39 23,1 C 15,7 C 0,0 UV-I 0,0 C 60 % 84 % 0 % 1015,2 hPa 0,0 l/m 0,0 km/h (0 Bft) 0 min 0,0 km/h (0 Bft)
26.08.2009 00:44 23,0 C 15,6 C 0,0 UV-I 0,0 C 60 % 84 % 0 % 1015,2 hPa 0,0 l/m 0,0 km/h (0 Bft) 0 min 0,0 km/h (0 Bft)
26.08.2009 00:49 23,0 C 15,5 C 0,0 UV-I 0,0 C 60 % 84 % 0 % 1015,2 hPa 0,0 l/m 0,0 km/h (0 Bft) 0 min 0,0 km/h (0 Bft)
26.08.2009 00:54 23,0 C 15,5 C 0,0 UV-I 0,0 C 60 % 85 % 0 % 1015,2 hPa 0,0 l/m 0,0 km/h (0 Bft) 0 min 0,0 km/h (0 Bft)
26.08.2009 00:59 23,0 C 15,3 C 0,0 UV-I 0,0 C 60 % 85 % 0 % 1015,2 hPa 0,0 l/m 0,0 km/h (0 Bft) 0 min 0,0 km/h (0 Bft)
26.08.2009 01:04 23,0 C 15,2 C 0,0 UV-I 0,0 C 60 % 85 % 0 % 1015,2 hPa 0,0 l/m 0,0 km/h (0 Bft) 0 min 0,0 km/h (0 Bft)
26.08.2009 01:09 22,9 C 15,1 C 0,0 UV-I 0,0 C 60 % 86 % 0 % 1015,2 hPa 0,0 l/m 0,0 km/h (0 Bft) 0 min 0,0 km/h (0 Bft)
26.08.2009 01:14 22,9 C 15,0 C 0,0 UV-I 0,0 C 60 % 86 % 0 % 1015,2 hPa 0,0 l/m 0,0 km/h (0 Bft) 0 min 0,0 km/h (0 Bft)
26.08.2009 01:19 22,8 C 14,9 C 0,0 UV-I 0,0 C 60 % 86 % 0 % 1015,3 hPa 0,0 l/m 0,0 km/h (0 Bft) 0 min 0,0 km/h (0 Bft)
26.08.2009 01:24 22,8 C 14,8 C 0,0 UV-I 0,0 C 60 % 87 % 0 % 1015,3 hPa 0,0 l/m 0,0 km/h (0 Bft) 0 min 0,0 km/h (0 Bft)
26.08.2009 01:29 22,8 C 14,8 C 0,0 UV-I 0,0 C 60 % 87 % 0 % 1015,3 hPa 0,0 l/m 0,0 km/h (0 Bft) 0 min 0,0 km/h (0 Bft)
26.08.2009 01:34 22,8 C 14,7 C 0,0 UV-I 0,0 C 60 % 87 % 0 % 1015,3 hPa 0,0 l/m 0,0 km/h (0 Bft) 0 min 0,0 km/h (0 Bft)
26.08.2009 01:39 22,7 C 14,7 C 0,0 UV-I 0,0 C 59 % 87 % 0 % 1015,4 hPa 0,0 l/m 0,0 km/h (0 Bft) 0 min 0,0 km/h (0 Bft)
26.08.2009 01:44 22,7 C 14,6 C 0,0 UV-I 0,0 C 59 % 87 % 0 % 1015,4 hPa 0,0 l/m 0,0 km/h (0 Bft) 0 min 0,0 km/h (0 Bft)
26.08.2009 01:49 22,7 C 14,4 C 0,0 UV-I 0,0 C 59 % 88 % 0 % 1015,4 hPa 0,0 l/m 0,0 km/h (0 Bft) 0 min 0,0 km/h (0 Bft)
26.08.2009 01:54 22,7 C 14,5 C 0,0 UV-I 0,0 C 59 % 88 % 0 % 1015,4 hPa 0,0 l/m 0,0 km/h (0 Bft) 0 min 0,0 km/h (0 Bft)
26.08.2009 01:59 22,6 C 14,3 C 0,0 UV-I 0,0 C 59 % 88 % 0 % 1015,2 hPa 0,0 l/m 0,0 km/h (0 Bft) 0 min 0,0 km/h (0 Bft)
26.08.2009 02:04 22,6 C 14,3 C 0,0 UV-I 0,0 C 59 % 88 % 0 % 1015,2 hPa 0,0 l/m 0,0 km/h (0 Bft) 0 min 0,0 km/h (0 Bft)
26.08.2009 02:09 22,6 C 14,2 C 0,0 UV-I 0,0 C 59 % 88 % 0 % 1015,2 hPa 0,0 l/m 0,0 km/h (0 Bft) 0 min 0,0 km/h (0 Bft)
26.08.2009 02:14 22,6 C 14,1 C 0,0 UV-I 0,0 C 59 % 88 % 0 % 1015,2 hPa 0,0 l/m 0,0 km/h (0 Bft) 0 min 0,0 km/h (0 Bft)
26.08.2009 02:19 22,5 C 14,0 C 0,0 UV-I 0,0 C 59 % 88 % 0 % 1015,6 hPa 0,0 l/m 0,0 km/h (0 Bft) 0 min 0,0 km/h (0 Bft)
26.08.2009 02:24 22,5 C 14,0 C 0,0 UV-I 0,0 C 59 % 88 % 0 % 1015,6 hPa 0,0 l/m 0,0 km/h (0 Bft) 0 min 0,0 km/h (0 Bft)
26.08.2009 02:29 22,5 C 13,9 C 0,0 UV-I 0,0 C 59 % 89 % 0 % 1015,6 hPa 0,0 l/m 0,0 km/h (0 Bft) 0 min 0,0 km/h (0 Bft)
26.08.2009 02:34 22,5 C 13,9 C 0,0 UV-I 0,0 C 59 % 89 % 0 % 1015,6 hPa 0,0 l/m 0,0 km/h (0 Bft) 0 min 0,0 km/h (0 Bft)
26.08.2009 02:39 22,4 C 13,9 C 0,0 UV-I 0,0 C 59 % 89 % 0 % 1015,4 hPa 0,0 l/m 0,0 km/h (0 Bft) 0 min 0,0 km/h (0 Bft)
26.08.2009 02:44 22,4 C 13,7 C 0,0 UV-I 0,0 C 59 % 89 % 0 % 1015,4 hPa 0,0 l/m 0,0 km/h (0 Bft) 0 min 0,0 km/h (0 Bft)
26.08.2009 02:49 22,4 C 13,7 C 0,0 UV-I 0,0 C 59 % 89 % 0 % 1015,4 hPa 0,0 l/m 0,0 km/h (0 Bft) 0 min 0,0 km/h (0 Bft)
26.08.2009 02:54 22,4 C 13,6 C 0,0 UV-I 0,0 C 59 % 89 % 0 % 1015,4 hPa 0,0 l/m 0,0 km/h (0 Bft) 0 min 0,0 km/h (0 Bft)
26.08.2009 02:59 22,4 C 13,6 C 0,0 UV-I 0,0 C 59 % 89 % 0 % 1015,2 hPa 0,0 l/m 0,0 km/h (0 Bft) 0 min 0,0 km/h (0 Bft)
26.08.2009 03:04 22,4 C 13,5 C 0,0 UV-I 0,0 C 58 % 89 % 0 % 1015,2 hPa 0,0 l/m 0,0 km/h (0 Bft) 0 min 0,0 km/h (0 Bft)
26.08.2009 03:09 22,3 C 13,4 C 0,0 UV-I 0,0 C 58 % 89 % 0 % 1015,2 hPa 0,0 l/m 0,0 km/h (0 Bft) 0 min 0,0 km/h (0 Bft)
26.08.2009 03:14 22,3 C 13,5 C 0,0 UV-I 0,0 C 58 % 89 % 0 % 1015,2 hPa 0,0 l/m 0,0 km/h (0 Bft) 0 min 0,0 km/h (0 Bft)
26.08.2009 03:19 22,2 C 13,4 C 0,0 UV-I 0,0 C 58 % 89 % 0 % 1015,6 hPa 0,0 l/m 0,0 km/h (0 Bft) 0 min 0,0 km/h (0 Bft)
26.08.2009 03:24 22,2 C 13,3 C 0,0 UV-I 0,0 C 58 % 89 % 0 % 1015,6 hPa 0,0 l/m 0,0 km/h (0 Bft) 0 min 0,0 km/h (0 Bft)
26.08.2009 03:29 22,2 C 13,2 C 0,0 UV-I 0,0 C 58 % 90 % 0 % 1015,6 hPa 0,0 l/m 0,0 km/h (0 Bft) 0 min 0,0 km/h (0 Bft)
26.08.2009 03:34 22,2 C 13,2 C 0,0 UV-I 0,0 C 58 % 90 % 0 % 1015,6 hPa 0,0 l/m 0,0 km/h (0 Bft) 0 min 0,0 km/h (0 Bft)
26.08.2009 03:39 22,2 C 13,1 C 0,0 UV-I 0,0 C 58 % 90 % 0 % 1015,7 hPa 0,0 l/m 0,0 km/h (0 Bft) 0 min 0,0 km/h (0 Bft)
26.08.2009 03:44 22,2 C 13,1 C 0,0 UV-I 0,0 C 58 % 90 % 0 % 1015,7 hPa 0,0 l/m 0,0 km/h (0 Bft) 0 min 0,0 km/h (0 Bft)
26.08.2009 03:49 22,1 C 13,1 C 0,0 UV-I 0,0 C 58 % 90 % 0 % 1015,7 hPa 0,0 l/m 0,0 km/h (0 Bft) 0 min 0,0 km/h (0 Bft)
26.08.2009 03:54 22,1 C 13,1 C 0,0 UV-I 0,0 C 58 % 90 % 0 % 1015,7 hPa 0,0 l/m 0,0 km/h (0 Bft) 0 min 0,0 km/h (0 Bft)
26.08.2009 03:59 22,0 C 13,0 C 0,0 UV-I 0,0 C 58 % 90 % 0 % 1015,8 hPa 0,0 l/m 0,2 km/h (0 Bft) 0 min 0,0 km/h (0 Bft)
26.08.2009 04:04 22,1 C 13,1 C 0,0 UV-I 0,0 C 58 % 90 % 0 % 1015,8 hPa 0,0 l/m 0,2 km/h (0 Bft) 0 min 0,0 km/h (0 Bft)
26.08.2009 04:09 22,0 C 13,1 C 0,0 UV-I 0,0 C 58 % 91 % 0 % 1015,8 hPa 0,0 l/m 0,0 km/h (0 Bft) 0 min 0,0 km/h (0 Bft)
26.08.2009 04:14 22,0 C 13,0 C 0,0 UV-I 0,0 C 58 % 91 % 0 % 1015,8 hPa 0,0 l/m 0,0 km/h (0 Bft) 0 min 0,0 km/h (0 Bft)
26.08.2009 04:15 22,0 C 13,0 C 0,0 UV-I 0,0 C 58 % 91 % 0 % 1015,9 hPa 0,0 l/m 0,0 km/h (0 Bft) 0 min 0,0 km/h (0 Bft)
26.08.2009 04:16 22,0 C 13,0 C 0,0 UV-I 0,0 C 58 % 91 % 0 % 1015,9 hPa 0,0 l/m 0,0 km/h (0 Bft) 0 min 0,0 km/h (0 Bft)
26.08.2009 04:18 22,0 C 12,9 C 0,0 UV-I 0,0 C 58 % 91 % 0 % 1015,9 hPa 0,0 l/m 0,0 km/h (0 Bft) 0 min 0,0 km/h (0 Bft)
26.08.2009 04:20 22,0 C 12,9 C 0,0 UV-I 0,0 C 58 % 91 % 0 % 1015,9 hPa 0,0 l/m 0,0 km/h (0 Bft) 0 min 0,0 km/h (0 Bft)
26.08.2009 04:22 22,0 C 12,9 C 0,0 UV-I 0,0 C 58 % 91 % 0 % 1015,9 hPa 0,0 l/m 0,0 km/h (0 Bft) 0 min 0,0 km/h (0 Bft)
26.08.2009 04:24 22,0 C 12,9 C 0,0 UV-I 0,0 C 58 % 91 % 0 % 1015,9 hPa 0,0 l/m 0,0 km/h (0 Bft) 0 min 0,0 km/h (0 Bft)
26.08.2009 04:26 22,0 C 12,9 C 0,0 UV-I 0,0 C 58 % 91 % 0 % 1015,9 hPa 0,0 l/m 0,0 km/h (0 Bft) 0 min 0,0 km/h (0 Bft)
26.08.2009 04:28 22,0 C 12,8 C 0,0 UV-I 0,0 C 58 % 91 % 0 % 1015,9 hPa 0,0 l/m 0,0 km/h (0 Bft) 0 min 0,0 km/h (0 Bft)
26.08.2009 04:30 22,0 C 12,8 C 0,0 UV-I 0,0 C 58 % 91 % 0 % 1015,9 hPa 0,0 l/m 0,0 km/h (0 Bft) 0 min 0,0 km/h (0 Bft)
26.08.2009 04:32 22,0 C 12,8 C 0,0 UV-I 0,0 C 58 % 91 % 0 % 1015,9 hPa 0,0 l/m 0,0 km/h (0 Bft) 0 min 0,0 km/h (0 Bft)
26.08.2009 04:34 21,9 C 12,9 C 0,0 UV-I 0,0 C 58 % 91 % 0 % 1015,9 hPa 0,0 l/m 0,0 km/h (0 Bft) 0 min 0,0 km/h (0 Bft)
26.08.2009 04:36 22,0 C 12,8 C 0,0 UV-I 0,0 C 58 % 91 % 0 % 1015,8 hPa 0,0 l/m 0,0 km/h (0 Bft) 0 min 0,0 km/h (0 Bft)
26.08.2009 04:38 21,9 C 12,8 C 0,0 UV-I 0,0 C 58 % 91 % 0 % 1015,8 hPa 0,0 l/m 0,0 km/h (0 Bft) 0 min 0,0 km/h (0 Bft)
26.08.2009 04:40 21,9 C 12,8 C 0,0 UV-I 0,0 C 58 % 91 % 0 % 1015,8 hPa 0,0 l/m 0,0 km/h (0 Bft) 0 min 0,0 km/h (0 Bft)
26.08.2009 04:42 21,9 C 12,8 C 0,0 UV-I 0,0 C 58 % 91 % 0 % 1015,8 hPa 0,0 l/m 0,0 km/h (0 Bft) 0 min 0,0 km/h (0 Bft)
26.08.2009 04:44 21,9 C 12,8 C 0,0 UV-I 0,0 C 58 % 91 % 0 % 1015,8 hPa 0,0 l/m 0,0 km/h (0 Bft) 0 min 0,0 km/h (0 Bft)
26.08.2009 04:46 21,9 C 12,7 C 0,0 UV-I 0,0 C 58 % 91 % 0 % 1015,8 hPa 0,0 l/m 0,0 km/h (0 Bft) 0 min 0,0 km/h (0 Bft)
26.08.2009 04:48 21,9 C 12,7 C 0,0 UV-I 0,0 C 58 % 91 % 0 % 1015,8 hPa 0,0 l/m 0,0 km/h (0 Bft) 0 min 0,0 km/h (0 Bft)
26.08.2009 04:50 21,8 C 12,7 C 0,0 UV-I 0,0 C 58 % 90 % 0 % 1015,8 hPa 0,0 l/m 0,0 km/h (0 Bft) 0 min 0,0 km/h (0 Bft)
26.08.2009 04:52 21,8 C 12,6 C 0,0 UV-I 0,0 C 58 % 90 % 0 % 1015,8 hPa 0,0 l/m 0,0 km/h (0 Bft) 0 min 0,0 km/h (0 Bft)
26.08.2009 04:54 21,8 C 12,6 C 0,0 UV-I 0,0 C 58 % 90 % 0 % 1015,8 hPa 0,0 l/m 0,0 km/h (0 Bft) 0 min 0,0 km/h (0 Bft)
26.08.2009 04:56 21,8 C 12,6 C 0,0 UV-I 0,0 C 58 % 91 % 0 % 1015,9 hPa 0,0 l/m 0,0 km/h (0 Bft) 0 min 0,0 km/h (0 Bft)
26.08.2009 04:58 21,8 C 12,7 C 0,0 UV-I 0,0 C 58 % 91 % 0 % 1015,9 hPa 0,0 l/m 0,0 km/h (0 Bft) 0 min 0,0 km/h (0 Bft)
26.08.2009 05:00 21,8 C 12,6 C 0,0 UV-I 0,0 C 58 % 91 % 0 % 1015,9 hPa 0,0 l/m 0,0 km/h (0 Bft) 0 min 0,0 km/h (0 Bft)
26.08.2009 05:02 21,8 C 12,6 C 0,0 UV-I 0,0 C 58 % 91 % 0 % 1015,9 hPa 0,0 l/m 0,0 km/h (0 Bft) 0 min 0,0 km/h (0 Bft)
26.08.2009 05:04 21,8 C 12,6 C 0,0 UV-I 0,0 C 58 % 91 % 0 % 1015,9 hPa 0,0 l/m 0,0 km/h (0 Bft) 0 min 0,0 km/h (0 Bft)
26.08.2009 05:06 21,8 C 12,5 C 0,0 UV-I 0,0 C 58 % 91 % 0 % 1015,9 hPa 0,0 l/m 0,0 km/h (0 Bft) 0 min 0,0 km/h (0 Bft)
26.08.2009 05:08 21,8 C 12,5 C 0,0 UV-I 0,0 C 58 % 91 % 0 % 1015,9 hPa 0,0 l/m 0,0 km/h (0 Bft) 0 min 0,0 km/h (0 Bft)
26.08.2009 05:10 21,8 C 12,5 C 0,0 UV-I 0,0 C 58 % 91 % 0 % 1015,9 hPa 0,0 l/m 0,0 km/h (0 Bft) 0 min 0,0 km/h (0 Bft)
26.08.2009 05:12 21,8 C 12,5 C 0,0 UV-I 0,0 C 58 % 91 % 0 % 1015,9 hPa 0,0 l/m 0,0 km/h (0 Bft) 0 min 0,0 km/h (0 Bft)
26.08.2009 05:14 21,7 C 12,5 C 0,0 UV-I 0,0 C 58 % 91 % 0 % 1015,9 hPa 0,0 l/m 0,0 km/h (0 Bft) 0 min 0,0 km/h (0 Bft)
26.08.2009 05:16 21,7 C 12,5 C 0,0 UV-I 0,0 C 58 % 91 % 0 % 1015,9 hPa 0,0 l/m 0,0 km/h (0 Bft) 0 min 0,0 km/h (0 Bft)
26.08.2009 05:18 21,7 C 12,4 C 0,0 UV-I 0,0 C 58 % 91 % 0 % 1015,9 hPa 0,0 l/m 0,0 km/h (0 Bft) 0 min 0,0 km/h (0 Bft)
26.08.2009 05:20 21,7 C 12,4 C 0,0 UV-I 0,0 C 58 % 91 % 0 % 1015,9 hPa 0,0 l/m 0,0 km/h (0 Bft) 0 min 0,0 km/h (0 Bft)
26.08.2009 05:22 21,7 C 12,4 C 0,0 UV-I 0,0 C 58 % 91 % 0 % 1015,9 hPa 0,0 l/m 0,0 km/h (0 Bft) 0 min 0,0 km/h (0 Bft)
26.08.2009 05:24 21,7 C 12,4 C 0,0 UV-I 0,0 C 58 % 91 % 0 % 1015,9 hPa 0,0 l/m 0,0 km/h (0 Bft) 0 min 0,0 km/h (0 Bft)
26.08.2009 05:26 21,7 C 12,4 C 0,0 UV-I 0,0 C 58 % 91 % 0 % 1015,9 hPa 0,0 l/m 0,0 km/h (0 Bft) 0 min 0,0 km/h (0 Bft)
26.08.2009 05:28 21,7 C 12,4 C 0,0 UV-I 0,0 C 58 % 91 % 0 % 1015,9 hPa 0,0 l/m 0,0 km/h (0 Bft) 0 min 0,0 km/h (0 Bft)
26.08.2009 05:30 21,6 C 12,4 C 0,0 UV-I 0,0 C 58 % 91 % 0 % 1015,9 hPa 0,0 l/m 0,0 km/h (0 Bft) 0 min 0,0 km/h (0 Bft)
26.08.2009 05:32 21,6 C 12,5 C 0,0 UV-I 0,0 C 58 % 91 % 0 % 1015,9 hPa 0,0 l/m 0,0 km/h (0 Bft) 0 min 0,0 km/h (0 Bft)
26.08.2009 05:34 21,6 C 12,5 C 0,0 UV-I 0,0 C 58 % 91 % 0 % 1015,9 hPa 0,0 l/m 0,0 km/h (0 Bft) 0 min 0,0 km/h (0 Bft)
26.08.2009 05:36 21,6 C 12,4 C 0,0 UV-I 0,0 C 58 % 91 % 0 % 1015,8 hPa 0,0 l/m 0,0 km/h (0 Bft) 0 min 0,0 km/h (0 Bft)
26.08.2009 05:38 21,6 C 12,4 C 0,0 UV-I 0,0 C 58 % 91 % 0 % 1015,8 hPa 0,0 l/m 0,0 km/h (0 Bft) 0 min 0,0 km/h (0 Bft)
26.08.2009 05:40 21,6 C 12,4 C 0,0 UV-I 0,0 C 58 % 91 % 0 % 1015,8 hPa 0,0 l/m 0,0 km/h (0 Bft) 0 min 0,0 km/h (0 Bft)
26.08.2009 05:42 21,6 C 12,4 C 0,0 UV-I 0,0 C 58 % 91 % 0 % 1015,8 hPa 0,0 l/m 0,0 km/h (0 Bft) 0 min 0,0 km/h (0 Bft)
26.08.2009 05:44 21,6 C 12,4 C 0,0 UV-I 0,0 C 58 % 91 % 0 % 1015,8 hPa 0,0 l/m 0,0 km/h (0 Bft) 0 min 0,0 km/h (0 Bft)
26.08.2009 05:46 21,6 C 12,3 C 0,0 UV-I 0,0 C 58 % 91 % 0 % 1015,8 hPa 0,0 l/m 0,0 km/h (0 Bft) 0 min 0,0 km/h (0 Bft)
26.08.2009 05:48 21,6 C 12,3 C 0,0 UV-I 0,0 C 58 % 91 % 0 % 1015,8 hPa 0,0 l/m 0,0 km/h (0 Bft) 0 min 0,0 km/h (0 Bft)
26.08.2009 05:50 21,6 C 12,3 C 0,0 UV-I 0,0 C 58 % 91 % 0 % 1015,8 hPa 0,0 l/m 0,0 km/h (0 Bft) 0 min 0,0 km/h (0 Bft)
26.08.2009 05:52 21,6 C 12,3 C 0,0 UV-I 0,0 C 58 % 91 % 0 % 1015,8 hPa 0,0 l/m 0,0 km/h (0 Bft) 0 min 0,0 km/h (0 Bft)
26.08.2009 05:54 21,6 C 12,3 C 0,0 UV-I 0,0 C 58 % 91 % 0 % 1015,8 hPa 0,0 l/m 0,0 km/h (0 Bft) 0 min 0,0 km/h (0 Bft)
26.08.2009 05:56 21,6 C 12,3 C 0,0 UV-I 0,0 C 58 % 91 % 0 % 1015,6 hPa 0,0 l/m 0,0 km/h (0 Bft) 0 min 0,0 km/h (0 Bft)
26.08.2009 05:58 21,6 C 12,3 C 0,0 UV-I 0,0 C 58 % 91 % 0 % 1015,6 hPa 0,0 l/m 0,0 km/h (0 Bft) 0 min 0,0 km/h (0 Bft)
26.08.2009 06:00 21,6 C 12,3 C 0,0 UV-I 0,0 C 58 % 91 % 0 % 1015,6 hPa 0,0 l/m 0,0 km/h (0 Bft) 0 min 0,0 km/h (0 Bft)
26.08.2009 06:02 21,6 C 12,3 C 0,0 UV-I 0,0 C 58 % 91 % 0 % 1015,6 hPa 0,0 l/m 0,0 km/h (0 Bft) 0 min 2,6 km/h (1 Bft)
26.08.2009 06:04 21,6 C 12,3 C 0,0 UV-I 0,0 C 58 % 91 % 0 % 1015,6 hPa 0,0 l/m 0,0 km/h (0 Bft) 0 min 2,6 km/h (1 Bft)
26.08.2009 06:06 21,5 C 12,3 C 0,0 UV-I 0,0 C 58 % 92 % 0 % 1015,6 hPa 0,0 l/m 1,0 km/h (0 Bft) 0 min 3,8 km/h (1 Bft)
26.08.2009 06:08 21,5 C 12,2 C 0,0 UV-I 0,0 C 58 % 92 % 0 % 1015,6 hPa 0,0 l/m 1,4 km/h (1 Bft) 0 min 4,8 km/h (1 Bft)
26.08.2009 06:10 21,5 C 12,2 C 0,0 UV-I 0,0 C 58 % 92 % 0 % 1015,6 hPa 0,0 l/m 1,7 km/h (1 Bft) 0 min 4,8 km/h (1 Bft)
26.08.2009 06:12 21,5 C 12,3 C 0,0 UV-I 0,0 C 58 % 92 % 0 % 1015,6 hPa 0,0 l/m 1,9 km/h (1 Bft) 0 min 4,8 km/h (1 Bft)
26.08.2009 06:14 21,5 C 12,3 C 0,0 UV-I 0,0 C 58 % 92 % 0 % 1015,6 hPa 0,0 l/m 2,2 km/h (1 Bft) 0 min 3,1 km/h (1 Bft)
26.08.2009 06:16 21,5 C 12,3 C 0,0 UV-I 0,0 C 58 % 92 % 0 % 1015,8 hPa 0,0 l/m 1,9 km/h (1 Bft) 0 min 2,6 km/h (1 Bft)
26.08.2009 06:18 21,5 C 12,3 C 0,0 UV-I 0,0 C 58 % 92 % 0 % 1015,8 hPa 0,0 l/m 1,4 km/h (1 Bft) 0 min 3,1 km/h (1 Bft)
26.08.2009 06:20 21,5 C 12,3 C 0,0 UV-I 0,0 C 58 % 92 % 0 % 1015,8 hPa 0,0 l/m 1,7 km/h (1 Bft) 0 min 5,5 km/h (1 Bft)
26.08.2009 06:22 21,5 C 12,3 C 0,0 UV-I 0,0 C 58 % 92 % 0 % 1015,8 hPa 0,0 l/m 1,4 km/h (1 Bft) 0 min 5,8 km/h (2 Bft)
26.08.2009 06:24 21,4 C 12,3 C 0,0 UV-I 0,0 C 58 % 92 % 0 % 1015,8 hPa 0,0 l/m 1,2 km/h (1 Bft) 0 min 2,4 km/h (1 Bft)
26.08.2009 06:26 21,4 C 12,3 C 0,0 UV-I 0,0 C 58 % 92 % 0 % 1015,8 hPa 0,0 l/m 1,0 km/h (0 Bft) 0 min 2,4 km/h (1 Bft)
26.08.2009 06:28 21,5 C 12,3 C 0,0 UV-I 0,0 C 58 % 92 % 0 % 1015,8 hPa 0,0 l/m 1,2 km/h (1 Bft) 0 min 2,6 km/h (1 Bft)
26.08.2009 06:30 21,4 C 12,3 C 0,0 UV-I 0,0 C 58 % 92 % 0 % 1015,8 hPa 0,0 l/m 1,4 km/h (1 Bft) 0 min 4,6 km/h (1 Bft)
26.08.2009 06:32 21,4 C 12,3 C 0,0 UV-I 0,0 C 58 % 92 % 0 % 1015,8 hPa 0,0 l/m 1,0 km/h (0 Bft) 0 min 4,6 km/h (1 Bft)
26.08.2009 06:34 21,4 C 12,3 C 0,0 UV-I 0,0 C 58 % 92 % 0 % 1015,8 hPa 0,0 l/m 1,0 km/h (0 Bft) 0 min 3,4 km/h (1 Bft)
26.08.2009 06:36 21,4 C 12,2 C 0,0 UV-I 0,0 C 58 % 92 % 0 % 1015,8 hPa 0,0 l/m 1,0 km/h (0 Bft) 0 min 3,4 km/h (1 Bft)
26.08.2009 06:38 21,4 C 12,3 C 0,0 UV-I 0,0 C 58 % 92 % 0 % 1015,8 hPa 0,0 l/m 0,7 km/h (0 Bft) 0 min 0,0 km/h (0 Bft)
26.08.2009 06:42 21,4 C 12,3 C 0,0 UV-I 0,0 C 58 % 92 % 0 % 1015,8 hPa 0,0 l/m 0,0 km/h (0 Bft) 0 min 0,0 km/h (0 Bft)
26.08.2009 06:44 21,4 C 12,2 C 0,0 UV-I 0,0 C 58 % 92 % 0 % 1015,8 hPa 0,0 l/m 0,0 km/h (0 Bft) 0 min 2,6 km/h (1 Bft)
26.08.2009 06:46 21,4 C 12,2 C 0,0 UV-I 0,0 C 58 % 92 % 0 % 1015,8 hPa 0,0 l/m 0,0 km/h (0 Bft) 0 min 2,6 km/h (1 Bft)
26.08.2009 06:48 21,4 C 12,1 C 0,0 UV-I 0,0 C 58 % 92 % 0 % 1015,8 hPa 0,0 l/m 0,0 km/h (0 Bft) 0 min 0,0 km/h (0 Bft)
26.08.2009 06:50 21,4 C 12,2 C 0,0 UV-I 0,0 C 58 % 92 % 0 % 1015,8 hPa 0,0 l/m 0,2 km/h (0 Bft) 0 min 0,0 km/h (0 Bft)
26.08.2009 06:52 21,4 C 12,3 C 0,0 UV-I 0,0 C 58 % 92 % 0 % 1015,8 hPa 0,0 l/m 0,2 km/h (0 Bft) 0 min 0,0 km/h (0 Bft)
26.08.2009 06:54 21,4 C 12,2 C 0,0 UV-I 0,0 C 58 % 92 % 0 % 1015,8 hPa 0,0 l/m 0,2 km/h (0 Bft) 0 min 0,0 km/h (0 Bft)
26.08.2009 06:56 21,4 C 12,1 C 0,0 UV-I 0,0 C 58 % 92 % 0 % 1015,9 hPa 0,0 l/m 0,2 km/h (0 Bft) 0 min 0,0 km/h (0 Bft)
26.08.2009 06:58 21,4 C 12,2 C 0,0 UV-I 0,0 C 58 % 92 % 0 % 1015,9 hPa 0,0 l/m 0,2 km/h (0 Bft) 0 min 0,0 km/h (0 Bft)
26.08.2009 07:02 21,4 C 12,3 C 0,0 UV-I 0,0 C 58 % 93 % 0 % 1015,9 hPa 0,0 l/m 0,2 km/h (0 Bft) 0 min 0,0 km/h (0 Bft)
26.08.2009 07:04 21,2 C 12,3 C 0,0 UV-I 0,0 C 58 % 93 % 0 % 1015,9 hPa 0,0 l/m 0,2 km/h (0 Bft) 0 min 0,0 km/h (0 Bft)
26.08.2009 07:06 21,2 C 12,3 C 0,0 UV-I 0,0 C 58 % 93 % 0 % 1015,9 hPa 0,0 l/m 0,2 km/h (0 Bft) 0 min 2,9 km/h (1 Bft)
26.08.2009 07:08 21,2 C 12,3 C 0,0 UV-I 0,0 C 58 % 93 % 0 % 1015,9 hPa 0,0 l/m 0,2 km/h (0 Bft) 0 min 2,9 km/h (1 Bft)
26.08.2009 07:10 21,2 C 12,3 C 0,0 UV-I 0,0 C 58 % 93 % 0 % 1015,9 hPa 0,0 l/m 0,2 km/h (0 Bft) 0 min 2,6 km/h (1 Bft)
26.08.2009 07:12 21,2 C 12,2 C 0,0 UV-I 0,0 C 58 % 92 % 0 % 1015,9 hPa 0,0 l/m 0,5 km/h (0 Bft) 0 min 2,6 km/h (1 Bft)
26.08.2009 07:14 21,2 C 12,3 C 0,0 UV-I 0,0 C 58 % 93 % 0 % 1015,9 hPa 0,0 l/m 0,5 km/h (0 Bft) 0 min 2,6 km/h (1 Bft)
26.08.2009 07:16 21,2 C 12,3 C 0,0 UV-I 0,0 C 58 % 93 % 0 % 1015,8 hPa 0,0 l/m 0,5 km/h (0 Bft) 0 min 0,0 km/h (0 Bft)
26.08.2009 07:18 21,2 C 12,3 C 0,0 UV-I 0,0 C 58 % 93 % 0 % 1015,8 hPa 0,0 l/m 0,5 km/h (0 Bft) 0 min 2,6 km/h (1 Bft)
26.08.2009 07:20 21,2 C 12,3 C 0,0 UV-I 0,0 C 58 % 93 % 0 % 1015,8 hPa 0,0 l/m 0,7 km/h (0 Bft) 0 min 2,6 km/h (1 Bft)
26.08.2009 07:22 21,2 C 12,4 C 0,0 UV-I 0,0 C 58 % 93 % 0 % 1015,8 hPa 0,0 l/m 0,5 km/h (0 Bft) 0 min 0,0 km/h (0 Bft)
26.08.2009 07:26 21,2 C 12,3 C 0,0 UV-I 0,0 C 58 % 93 % 0 % 1015,8 hPa 0,0 l/m 0,2 km/h (0 Bft) 0 min 0,0 km/h (0 Bft)
26.08.2009 07:28 21,2 C 12,3 C 0,1 UV-I 0,0 C 58 % 93 % 0 % 1015,8 hPa 0,0 l/m 0,2 km/h (0 Bft) 0 min 2,4 km/h (1 Bft)
26.08.2009 07:30 21,2 C 12,4 C 0,1 UV-I 0,0 C 58 % 93 % 0 % 1015,8 hPa 0,0 l/m 0,2 km/h (0 Bft) 0 min 3,8 km/h (1 Bft)
26.08.2009 07:32 21,2 C 12,4 C 0,1 UV-I 0,0 C 58 % 93 % 0 % 1015,8 hPa 0,0 l/m 0,7 km/h (0 Bft) 0 min 3,8 km/h (1 Bft)
26.08.2009 07:34 21,2 C 12,4 C 0,1 UV-I 0,0 C 58 % 93 % 0 % 1015,8 hPa 0,0 l/m 0,7 km/h (0 Bft) 0 min 3,4 km/h (1 Bft)
26.08.2009 07:36 21,2 C 12,5 C 0,1 UV-I 0,0 C 58 % 93 % 0 % 1016,0 hPa 0,0 l/m 1,2 km/h (1 Bft) 0 min 2,9 km/h (1 Bft)
26.08.2009 07:38 21,4 C 12,4 C 0,2 UV-I 0,0 C 58 % 93 % 0 % 1016,0 hPa 0,0 l/m 1,2 km/h (1 Bft) 0 min 2,9 km/h (1 Bft)
26.08.2009 07:40 21,4 C 12,5 C 0,2 UV-I 0,0 C 58 % 93 % 0 % 1016,0 hPa 0,0 l/m 1,7 km/h (1 Bft) 0 min 3,6 km/h (1 Bft)
26.08.2009 07:42 21,4 C 12,5 C 0,2 UV-I 0,0 C 58 % 93 % 0 % 1016,0 hPa 0,0 l/m 1,2 km/h (1 Bft) 0 min 3,6 km/h (1 Bft)
26.08.2009 07:44 21,4 C 12,5 C 0,2 UV-I 0,0 C 58 % 93 % 0 % 1016,0 hPa 0,0 l/m 1,2 km/h (1 Bft) 0 min 3,6 km/h (1 Bft)
26.08.2009 07:46 21,4 C 12,5 C 0,2 UV-I 0,0 C 58 % 93 % 0 % 1016,0 hPa 0,0 l/m 1,2 km/h (1 Bft) 0 min 4,3 km/h (1 Bft)
26.08.2009 07:48 21,4 C 12,7 C 0,2 UV-I 0,0 C 58 % 93 % 0 % 1016,0 hPa 0,0 l/m 1,7 km/h (1 Bft) 0 min 4,8 km/h (1 Bft)
26.08.2009 07:50 21,4 C 12,7 C 0,2 UV-I 0,0 C 58 % 93 % 0 % 1016,0 hPa 0,0 l/m 1,9 km/h (1 Bft) 0 min 4,8 km/h (1 Bft)
26.08.2009 07:52 21,4 C 12,7 C 0,2 UV-I 0,0 C 58 % 93 % 0 % 1016,0 hPa 0,0 l/m 1,7 km/h (1 Bft) 0 min 7,0 km/h (2 Bft)
26.08.2009 07:54 21,4 C 12,7 C 0,2 UV-I 0,0 C 58 % 93 % 0 % 1016,0 hPa 0,0 l/m 2,2 km/h (1 Bft) 0 min 3,1 km/h (1 Bft)
26.08.2009 07:56 21,4 C 12,7 C 0,2 UV-I 0,1 C 58 % 93 % 3 % 1016,0 hPa 0,0 l/m 2,4 km/h (1 Bft) 0 min 3,1 km/h (1 Bft)
26.08.2009 07:58 21,4 C 12,8 C 0,3 UV-I 0,0 C 58 % 93 % 0 % 1016,0 hPa 0,0 l/m 1,9 km/h (1 Bft) 0 min 3,8 km/h (1 Bft)
26.08.2009 08:00 21,4 C 12,8 C 0,3 UV-I 0,1 C 58 % 93 % 3 % 1016,0 hPa 0,0 l/m 2,4 km/h (1 Bft) 0 min 3,8 km/h (1 Bft)
26.08.2009 08:02 21,4 C 12,9 C 0,3 UV-I 0,1 C 58 % 93 % 3 % 1016,0 hPa 0,0 l/m 2,6 km/h (1 Bft) 0 min 3,8 km/h (1 Bft)
26.08.2009 08:06 21,4 C 12,9 C 0,3 UV-I 0,2 C 58 % 93 % 6 % 1016,0 hPa 0,0 l/m 2,6 km/h (1 Bft) 0 min 3,8 km/h (1 Bft)
26.08.2009 08:08 21,4 C 13,0 C 0,5 UV-I 0,2 C 58 % 93 % 6 % 1016,0 hPa 0,0 l/m 2,6 km/h (1 Bft) 0 min 4,3 km/h (1 Bft)
26.08.2009 08:10 21,4 C 13,1 C 0,5 UV-I 0,2 C 58 % 93 % 6 % 1016,0 hPa 0,0 l/m 2,4 km/h (1 Bft) 0 min 4,3 km/h (1 Bft)
26.08.2009 08:12 21,4 C 13,1 C 0,4 UV-I 0,3 C 58 % 93 % 9 % 1016,0 hPa 0,0 l/m 2,4 km/h (1 Bft) 0 min 3,8 km/h (1 Bft)
26.08.2009 08:14 21,4 C 13,1 C 0,4 UV-I 0,3 C 58 % 93 % 9 % 1016,0 hPa 0,0 l/m 2,4 km/h (1 Bft) 0 min 3,8 km/h (1 Bft)
26.08.2009 08:16 21,4 C 13,2 C 0,4 UV-I 0,3 C 58 % 93 % 9 % 1016,4 hPa 0,0 l/m 2,9 km/h (1 Bft) 0 min 5,5 km/h (1 Bft)
26.08.2009 08:18 21,4 C 13,2 C 0,5 UV-I 0,4 C 58 % 93 % 11 % 1016,4 hPa 0,0 l/m 3,6 km/h (1 Bft) 0 min 6,7 km/h (2 Bft)
26.08.2009 08:20 21,4 C 13,2 C 0,5 UV-I 0,5 C 58 % 93 % 14 % 1016,4 hPa 0,0 l/m 4,1 km/h (1 Bft) 0 min 6,7 km/h (2 Bft)
26.08.2009 08:22 21,5 C 13,3 C 0,6 UV-I 0,4 C 59 % 93 % 11 % 1016,4 hPa 0,0 l/m 4,1 km/h (1 Bft) 0 min 7,9 km/h (2 Bft)
26.08.2009 08:24 21,5 C 13,3 C 0,6 UV-I 0,5 C 59 % 93 % 14 % 1016,4 hPa 0,0 l/m 4,1 km/h (1 Bft) 0 min 5,1 km/h (1 Bft)
26.08.2009 08:28 21,4 C 13,5 C 0,6 UV-I 0,4 C 59 % 93 % 11 % 1016,4 hPa 0,0 l/m 3,4 km/h (1 Bft) 0 min 5,1 km/h (1 Bft)
26.08.2009 08:30 21,5 C 13,5 C 0,6 UV-I 0,5 C 59 % 93 % 14 % 1016,4 hPa 0,0 l/m 2,6 km/h (1 Bft) 0 min 0,0 km/h (0 Bft)
26.08.2009 08:32 21,5 C 13,5 C 0,7 UV-I 0,6 C 59 % 93 % 17 % 1016,4 hPa 0,0 l/m 1,7 km/h (1 Bft) 0 min 0,0 km/h (0 Bft)
26.08.2009 08:34 21,5 C 13,6 C 0,7 UV-I 0,5 C 59 % 93 % 14 % 1016,4 hPa 0,0 l/m 1,7 km/h (1 Bft) 0 min 2,6 km/h (1 Bft)
26.08.2009 08:36 21,5 C 13,6 C 0,7 UV-I 0,6 C 59 % 93 % 17 % 1016,2 hPa 0,0 l/m 1,7 km/h (1 Bft) 0 min 5,5 km/h (1 Bft)
26.08.2009 08:38 21,5 C 13,7 C 0,7 UV-I 0,6 C 59 % 93 % 17 % 1016,2 hPa 0,0 l/m 1,9 km/h (1 Bft) 0 min 5,5 km/h (1 Bft)
26.08.2009 08:40 21,5 C 13,7 C 0,7 UV-I 0,6 C 59 % 93 % 17 % 1016,2 hPa 0,0 l/m 1,9 km/h (1 Bft) 0 min 5,8 km/h (2 Bft)
26.08.2009 08:42 21,5 C 13,9 C 0,8 UV-I 0,4 C 59 % 93 % 11 % 1016,2 hPa 0,0 l/m 2,4 km/h (1 Bft) 0 min 5,8 km/h (2 Bft)
26.08.2009 08:46 21,5 C 13,9 C 0,8 UV-I 0,5 C 59 % 93 % 14 % 1016,2 hPa 0,0 l/m 2,2 km/h (1 Bft) 0 min 2,6 km/h (1 Bft)
26.08.2009 08:48 21,5 C 14,0 C 0,8 UV-I 0,5 C 59 % 93 % 14 % 1016,2 hPa 0,0 l/m 1,4 km/h (1 Bft) 0 min 0,0 km/h (0 Bft)
26.08.2009 08:52 21,5 C 14,0 C 0,8 UV-I 0,5 C 59 % 93 % 14 % 1016,2 hPa 0,0 l/m 0,7 km/h (0 Bft) 0 min 2,9 km/h (1 Bft)
26.08.2009 08:54 21,6 C 14,0 C 0,8 UV-I 0,6 C 59 % 92 % 17 % 1016,2 hPa 0,0 l/m 0,5 km/h (0 Bft) 0 min 2,9 km/h (1 Bft)
26.08.2009 08:56 21,6 C 14,1 C 0,8 UV-I 0,6 C 59 % 92 % 17 % 1016,6 hPa 0,0 l/m 0,7 km/h (0 Bft) 0 min 6,5 km/h (2 Bft)
26.08.2009 08:58 21,5 C 14,3 C 0,9 UV-I 0,4 C 59 % 92 % 11 % 1016,6 hPa 0,0 l/m 0,7 km/h (0 Bft) 0 min 6,5 km/h (2 Bft)
26.08.2009 09:02 21,6 C 14,3 C 0,9 UV-I 0,6 C 59 % 92 % 17 % 1016,6 hPa 0,0 l/m 1,0 km/h (0 Bft) 0 min 2,4 km/h (1 Bft)
26.08.2009 09:04 21,6 C 14,3 C 0,9 UV-I 0,6 C 59 % 92 % 17 % 1016,6 hPa 0,0 l/m 0,7 km/h (0 Bft) 0 min 0,0 km/h (0 Bft)
26.08.2009 09:08 21,6 C 14,5 C 1,0 UV-I 0,6 C 59 % 92 % 17 % 1016,6 hPa 0,0 l/m 0,2 km/h (0 Bft) 0 min 0,0 km/h (0 Bft)
26.08.2009 09:10 21,6 C 14,5 C 1,0 UV-I 0,7 C 59 % 92 % 20 % 1016,6 hPa 0,0 l/m 0,2 km/h (0 Bft) 0 min 0,0 km/h (0 Bft)
26.08.2009 09:12 21,6 C 14,6 C 1,1 UV-I 0,7 C 59 % 92 % 20 % 1016,6 hPa 0,0 l/m 0,2 km/h (0 Bft) 0 min 0,0 km/h (0 Bft)
26.08.2009 09:16 21,6 C 14,7 C 1,1 UV-I 0,8 C 59 % 92 % 23 % 1016,6 hPa 0,0 l/m 0,5 km/h (0 Bft) 0 min 5,1 km/h (1 Bft)
26.08.2009 09:18 21,6 C 14,8 C 1,0 UV-I 0,8 C 59 % 92 % 23 % 1016,6 hPa 0,0 l/m 0,7 km/h (0 Bft) 0 min 5,1 km/h (1 Bft)
26.08.2009 09:20 21,6 C 14,9 C 1,0 UV-I 0,7 C 59 % 91 % 20 % 1016,6 hPa 0,0 l/m 0,7 km/h (0 Bft) 0 min 3,4 km/h (1 Bft)
26.08.2009 09:30 21,7 C 15,2 C 1,1 UV-I 1,0 C 60 % 91 % 29 % 1016,6 hPa 0,0 l/m 1,0 km/h (0 Bft) 0 min 0,0 km/h (0 Bft)
26.08.2009 09:32 21,7 C 15,2 C 1,1 UV-I 1,1 C 60 % 91 % 31 % 1016,6 hPa 0,0 l/m 1,4 km/h (1 Bft) 0 min 0,0 km/h (0 Bft)
26.08.2009 09:34 21,7 C 15,3 C 1,1 UV-I 1,2 C 60 % 91 % 34 % 1016,6 hPa 0,0 l/m 1,9 km/h (1 Bft) 0 min 5,5 km/h (1 Bft)
26.08.2009 09:36 21,7 C 15,5 C 1,1 UV-I 1,0 C 60 % 91 % 29 % 1016,8 hPa 0,0 l/m 2,4 km/h (1 Bft) 0 min 5,5 km/h (1 Bft)
26.08.2009 09:38 21,7 C 15,4 C 1,2 UV-I 1,3 C 60 % 90 % 37 % 1016,8 hPa 0,0 l/m 2,9 km/h (1 Bft) 0 min 8,4 km/h (2 Bft)
26.08.2009 09:40 21,7 C 15,6 C 1,2 UV-I 1,2 C 60 % 91 % 34 % 1016,8 hPa 0,0 l/m 2,6 km/h (1 Bft) 0 min 8,4 km/h (2 Bft)
26.08.2009 09:42 21,7 C 15,7 C 1,2 UV-I 1,2 C 60 % 91 % 34 % 1016,8 hPa 0,0 l/m 2,9 km/h (1 Bft) 0 min 8,7 km/h (2 Bft)
26.08.2009 09:44 21,7 C 15,7 C 1,2 UV-I 1,3 C 60 % 90 % 37 % 1016,8 hPa 0,0 l/m 2,2 km/h (1 Bft) 0 min 4,3 km/h (1 Bft)
26.08.2009 09:46 21,7 C 15,7 C 1,2 UV-I 1,5 C 60 % 90 % 43 % 1016,8 hPa 0,0 l/m 2,2 km/h (1 Bft) 0 min 4,3 km/h (1 Bft)
26.08.2009 09:48 21,8 C 15,9 C 1,3 UV-I 1,4 C 60 % 90 % 40 % 1016,8 hPa 0,0 l/m 2,2 km/h (1 Bft) 0 min 4,3 km/h (1 Bft)
26.08.2009 09:50 21,8 C 15,9 C 1,3 UV-I 1,8 C 60 % 89 % 51 % 1016,8 hPa 0,0 l/m 2,2 km/h (1 Bft) 0 min 4,1 km/h (1 Bft)
26.08.2009 09:54 21,8 C 16,0 C 1,2 UV-I 3,5 C 60 % 88 % 100 % 1016,8 hPa 0,0 l/m 4,6 km/h (1 Bft) 2 min 10,3 km/h (2 Bft)
26.08.2009 09:56 21,8 C 16,3 C 1,2 UV-I 3,9 C 60 % 88 % 100 % 1016,8 hPa 0,0 l/m 5,5 km/h (1 Bft) 2 min 8,2 km/h (2 Bft)
26.08.2009 09:58 21,8 C 16,3 C 1,2 UV-I 4,4 C 59 % 87 % 100 % 1016,8 hPa 0,0 l/m 6,0 km/h (2 Bft) 2 min 8,4 km/h (2 Bft)
26.08.2009 10:00 21,8 C 16,3 C 1,2 UV-I 5,0 C 59 % 87 % 100 % 1016,8 hPa 0,0 l/m 6,0 km/h (2 Bft) 2 min 8,4 km/h (2 Bft)
26.08.2009 10:02 21,8 C 16,5 C 2,4 UV-I 5,4 C 59 % 86 % 100 % 1016,8 hPa 0,0 l/m 6,0 km/h (2 Bft) 2 min 14,4 km/h (3 Bft)
26.08.2009 10:04 21,8 C 16,7 C 2,4 UV-I 5,5 C 59 % 86 % 100 % 1016,8 hPa 0,0 l/m 5,1 km/h (1 Bft) 2 min 5,8 km/h (2 Bft)
26.08.2009 10:06 21,8 C 16,7 C 2,4 UV-I 6,0 C 59 % 86 % 100 % 1016,8 hPa 0,0 l/m 4,1 km/h (1 Bft) 2 min 6,0 km/h (2 Bft)
26.08.2009 10:08 21,8 C 16,8 C 2,7 UV-I 6,3 C 59 % 86 % 100 % 1016,8 hPa 0,0 l/m 3,6 km/h (1 Bft) 2 min 7,0 km/h (2 Bft)
26.08.2009 10:10 21,8 C 16,8 C 2,7 UV-I 6,5 C 59 % 86 % 100 % 1016,8 hPa 0,0 l/m 3,8 km/h (1 Bft) 2 min 7,0 km/h (2 Bft)
26.08.2009 10:12 21,8 C 17,1 C 2,8 UV-I 6,3 C 59 % 85 % 100 % 1016,8 hPa 0,0 l/m 4,1 km/h (1 Bft) 2 min 10,1 km/h (2 Bft)
26.08.2009 10:14 21,8 C 17,2 C 2,8 UV-I 6,4 C 59 % 85 % 100 % 1016,8 hPa 0,0 l/m 4,1 km/h (1 Bft) 2 min 10,1 km/h (2 Bft)
26.08.2009 10:16 21,8 C 17,4 C 2,8 UV-I 6,4 C 59 % 84 % 100 % 1016,9 hPa 0,0 l/m 4,3 km/h (1 Bft) 2 min 7,5 km/h (2 Bft)
26.08.2009 10:18 21,8 C 17,4 C 3,7 UV-I 6,6 C 59 % 84 % 100 % 1016,9 hPa 0,0 l/m 4,8 km/h (1 Bft) 2 min 10,3 km/h (2 Bft)
26.08.2009 10:20 21,8 C 17,7 C 3,7 UV-I 6,4 C 59 % 83 % 100 % 1016,9 hPa 0,0 l/m 4,8 km/h (1 Bft) 2 min 10,3 km/h (2 Bft)
26.08.2009 10:22 21,8 C 17,8 C 8,8 UV-I 6,5 C 59 % 83 % 100 % 1016,9 hPa 0,0 l/m 4,3 km/h (1 Bft) 2 min 7,0 km/h (2 Bft)
26.08.2009 10:24 21,8 C 18,0 C 8,8 UV-I 6,5 C 59 % 82 % 100 % 1016,9 hPa 0,0 l/m 3,8 km/h (1 Bft) 2 min 6,7 km/h (2 Bft)
26.08.2009 10:26 21,8 C 18,2 C 8,8 UV-I 6,6 C 59 % 81 % 100 % 1016,9 hPa 0,0 l/m 4,3 km/h (1 Bft) 2 min 13,2 km/h (3 Bft)
26.08.2009 10:28 21,8 C 18,3 C 10,8 UV-I 6,5 C 59 % 80 % 100 % 1016,9 hPa 0,0 l/m 4,8 km/h (1 Bft) 2 min 13,2 km/h (3 Bft)
26.08.2009 10:30 21,9 C 18,5 C 10,8 UV-I 6,4 C 59 % 80 % 100 % 1016,9 hPa 0,0 l/m 4,1 km/h (1 Bft) 2 min 5,3 km/h (1 Bft)
26.08.2009 10:32 21,8 C 18,5 C 8,7 UV-I 6,5 C 59 % 80 % 100 % 1016,9 hPa 0,0 l/m 4,3 km/h (1 Bft) 2 min 13,0 km/h (3 Bft)
26.08.2009 10:34 21,9 C 18,7 C 8,7 UV-I 6,3 C 59 % 78 % 100 % 1016,9 hPa 0,0 l/m 5,1 km/h (1 Bft) 2 min 8,2 km/h (2 Bft)
26.08.2009 10:36 21,9 C 18,8 C 8,7 UV-I 6,0 C 58 % 78 % 100 % 1017,0 hPa 0,0 l/m 6,3 km/h (2 Bft) 2 min 10,1 km/h (2 Bft)
26.08.2009 10:40 21,9 C 19,0 C 12,7 UV-I 5,8 C 58 % 76 % 100 % 1017,0 hPa 0,0 l/m 7,2 km/h (2 Bft) 2 min 16,8 km/h (3 Bft)
26.08.2009 10:42 21,9 C 19,3 C 13,0 UV-I 5,3 C 58 % 74 % 100 % 1017,0 hPa 0,0 l/m 8,2 km/h (2 Bft) 2 min 17,6 km/h (3 Bft)
26.08.2009 10:44 21,9 C 19,3 C 13,0 UV-I 5,2 C 58 % 73 % 100 % 1017,0 hPa 0,0 l/m 8,4 km/h (2 Bft) 2 min 12,5 km/h (3 Bft)
26.08.2009 10:46 21,9 C 19,5 C 13,0 UV-I 4,9 C 58 % 74 % 100 % 1017,0 hPa 0,0 l/m 8,7 km/h (2 Bft) 2 min 12,5 km/h (3 Bft)
26.08.2009 10:48 21,9 C 19,5 C 13,2 UV-I 4,9 C 58 % 73 % 100 % 1017,0 hPa 0,0 l/m 8,9 km/h (2 Bft) 2 min 15,6 km/h (3 Bft)
26.08.2009 10:50 21,9 C 19,6 C 13,2 UV-I 4,9 C 58 % 72 % 100 % 1017,0 hPa 0,0 l/m 9,1 km/h (2 Bft) 2 min 15,6 km/h (3 Bft)
26.08.2009 10:54 22,0 C 19,9 C 12,9 UV-I 4,5 C 58 % 71 % 100 % 1017,0 hPa 0,0 l/m 9,4 km/h (2 Bft) 2 min 18,5 km/h (3 Bft)
26.08.2009 10:56 22,0 C 20,0 C 12,9 UV-I 4,4 C 58 % 70 % 100 % 1017,1 hPa 0,0 l/m 8,7 km/h (2 Bft) 2 min 7,9 km/h (2 Bft)
26.08.2009 10:58 22,0 C 20,0 C 12,8 UV-I 4,7 C 58 % 70 % 100 % 1017,1 hPa 0,0 l/m 7,9 km/h (2 Bft) 2 min 7,9 km/h (2 Bft)
26.08.2009 11:00 22,0 C 20,2 C 12,8 UV-I 4,8 C 58 % 68 % 100 % 1017,1 hPa 0,0 l/m 8,2 km/h (2 Bft) 2 min 14,4 km/h (3 Bft)
26.08.2009 11:04 22,0 C 20,4 C 13,2 UV-I 4,5 C 57 % 68 % 100 % 1017,1 hPa 0,0 l/m 7,7 km/h (2 Bft) 2 min 13,5 km/h (3 Bft)
26.08.2009 11:06 22,0 C 20,5 C 13,2 UV-I 4,3 C 57 % 67 % 100 % 1017,1 hPa 0,0 l/m 8,2 km/h (2 Bft) 2 min 15,2 km/h (3 Bft)
26.08.2009 11:08 22,0 C 20,6 C 13,1 UV-I 4,1 C 57 % 67 % 100 % 1017,1 hPa 0,0 l/m 9,4 km/h (2 Bft) 2 min 15,2 km/h (3 Bft)
26.08.2009 11:10 22,0 C 20,7 C 13,1 UV-I 4,0 C 57 % 66 % 100 % 1017,1 hPa 0,0 l/m 9,9 km/h (2 Bft) 2 min 10,6 km/h (2 Bft)
26.08.2009 11:12 22,0 C 20,8 C 13,3 UV-I 4,0 C 57 % 64 % 100 % 1017,1 hPa 0,0 l/m 9,6 km/h (2 Bft) 2 min 5,8 km/h (2 Bft)
26.08.2009 11:14 22,0 C 20,9 C 13,3 UV-I 4,2 C 57 % 64 % 100 % 1017,1 hPa 0,0 l/m 9,1 km/h (2 Bft) 2 min 6,5 km/h (2 Bft)
26.08.2009 11:16 22,0 C 21,1 C 13,3 UV-I 4,2 C 57 % 64 % 100 % 1017,2 hPa 0,0 l/m 8,4 km/h (2 Bft) 2 min 13,2 km/h (3 Bft)
26.08.2009 11:18 22,0 C 21,1 C 13,3 UV-I 4,4 C 57 % 64 % 100 % 1017,2 hPa 0,0 l/m 7,5 km/h (2 Bft) 2 min 6,5 km/h (2 Bft)
26.08.2009 11:20 22,0 C 21,3 C 13,3 UV-I 4,5 C 57 % 63 % 100 % 1017,2 hPa 0,0 l/m 7,5 km/h (2 Bft) 2 min 15,2 km/h (3 Bft)
26.08.2009 11:22 22,0 C 21,4 C 13,5 UV-I 4,4 C 57 % 62 % 100 % 1017,2 hPa 0,0 l/m 7,2 km/h (2 Bft) 2 min 19,7 km/h (3 Bft)
26.08.2009 11:24 22,0 C 21,5 C 13,5 UV-I 4,4 C 57 % 61 % 100 % 1017,2 hPa 0,0 l/m 7,2 km/h (2 Bft) 2 min 21,2 km/h (4 Bft)
26.08.2009 11:26 22,0 C 21,5 C 13,5 UV-I 4,4 C 56 % 61 % 100 % 1017,2 hPa 0,0 l/m 8,4 km/h (2 Bft) 2 min 21,2 km/h (4 Bft)
26.08.2009 11:30 22,1 C 21,7 C 13,6 UV-I 3,9 C 56 % 61 % 100 % 1017,2 hPa 0,0 l/m 9,6 km/h (2 Bft) 2 min 11,5 km/h (2 Bft)
26.08.2009 11:32 22,1 C 21,8 C 13,2 UV-I 3,8 C 56 % 60 % 100 % 1017,2 hPa 0,0 l/m 9,1 km/h (2 Bft) 2 min 22,1 km/h (4 Bft)
26.08.2009 11:34 22,1 C 22,1 C 13,2 UV-I 3,7 C 56 % 61 % 100 % 1017,2 hPa 0,0 l/m 9,9 km/h (2 Bft) 2 min 12,0 km/h (2 Bft)
26.08.2009 11:38 22,1 C 22,1 C 12,9 UV-I 3,8 C 56 % 59 % 100 % 1016,9 hPa 0,0 l/m 8,4 km/h (2 Bft) 2 min 17,3 km/h (3 Bft)
26.08.2009 11:40 22,1 C 22,2 C 12,9 UV-I 3,7 C 56 % 59 % 100 % 1016,9 hPa 0,0 l/m 7,7 km/h (2 Bft) 2 min 4,8 km/h (1 Bft)
26.08.2009 11:42 22,1 C 22,3 C 12,9 UV-I 3,8 C 56 % 58 % 100 % 1016,9 hPa 0,0 l/m 8,7 km/h (2 Bft) 2 min 15,9 km/h (3 Bft)
26.08.2009 11:44 22,2 C 22,5 C 12,9 UV-I 3,6 C 56 % 58 % 100 % 1016,9 hPa 0,0 l/m 9,1 km/h (2 Bft) 2 min 15,9 km/h (3 Bft)
26.08.2009 11:46 22,2 C 22,5 C 12,9 UV-I 3,4 C 56 % 58 % 97 % 1016,9 hPa 0,0 l/m 8,4 km/h (2 Bft) 2 min 15,2 km/h (3 Bft)
26.08.2009 11:48 22,2 C 22,7 C 12,8 UV-I 3,4 C 56 % 58 % 97 % 1016,9 hPa 0,0 l/m 8,2 km/h (2 Bft) 2 min 5,3 km/h (1 Bft)
26.08.2009 11:50 22,2 C 22,7 C 12,8 UV-I 3,6 C 56 % 57 % 100 % 1016,9 hPa 0,0 l/m 7,7 km/h (2 Bft) 2 min 5,3 km/h (1 Bft)
26.08.2009 11:54 22,2 C 23,0 C 13,1 UV-I 3,8 C 56 % 57 % 100 % 1016,9 hPa 0,0 l/m 7,2 km/h (2 Bft) 2 min 15,4 km/h (3 Bft)
26.08.2009 11:58 22,3 C 23,3 C 13,1 UV-I 3,7 C 56 % 55 % 100 % 1016,6 hPa 0,0 l/m 6,0 km/h (2 Bft) 2 min 10,8 km/h (2 Bft)
26.08.2009 12:00 22,3 C 23,3 C 13,1 UV-I 3,9 C 56 % 54 % 100 % 1016,6 hPa 0,0 l/m 6,0 km/h (2 Bft) 2 min 6,7 km/h (2 Bft)
26.08.2009 12:02 22,3 C 23,4 C 13,1 UV-I 4,0 C 55 % 54 % 100 % 1016,6 hPa 0,0 l/m 6,3 km/h (2 Bft) 2 min 7,9 km/h (2 Bft)
26.08.2009 12:04 22,2 C 23,4 C 13,1 UV-I 4,4 C 55 % 54 % 100 % 1016,6 hPa 0,0 l/m 5,8 km/h (2 Bft) 2 min 18,0 km/h (3 Bft)
26.08.2009 12:06 22,2 C 23,7 C 13,1 UV-I 4,0 C 55 % 53 % 100 % 1016,6 hPa 0,0 l/m 6,0 km/h (2 Bft) 2 min 18,0 km/h (3 Bft)
26.08.2009 12:08 22,2 C 23,6 C 13,0 UV-I 3,9 C 55 % 52 % 100 % 1016,6 hPa 0,0 l/m 6,7 km/h (2 Bft) 2 min 12,3 km/h (3 Bft)
26.08.2009 12:10 22,4 C 23,7 C 13,0 UV-I 3,8 C 55 % 52 % 100 % 1016,6 hPa 0,0 l/m 7,2 km/h (2 Bft) 2 min 14,2 km/h (3 Bft)
26.08.2009 12:14 22,4 C 23,9 C 13,0 UV-I 3,8 C 55 % 51 % 100 % 1016,6 hPa 0,0 l/m 8,9 km/h (2 Bft) 2 min 21,4 km/h (4 Bft)
26.08.2009 12:16 22,4 C 24,0 C 13,0 UV-I 3,6 C 55 % 51 % 100 % 1016,7 hPa 0,0 l/m 8,4 km/h (2 Bft) 2 min 13,5 km/h (3 Bft)
26.08.2009 12:18 22,4 C 24,1 C 13,0 UV-I 3,6 C 55 % 50 % 100 % 1016,7 hPa 0,0 l/m 7,2 km/h (2 Bft) 2 min 6,5 km/h (2 Bft)
26.08.2009 12:22 22,5 C 24,3 C 13,0 UV-I 4,1 C 55 % 49 % 100 % 1016,7 hPa 0,0 l/m 6,7 km/h (2 Bft) 2 min 14,0 km/h (3 Bft)
26.08.2009 12:24 22,5 C 24,4 C 13,0 UV-I 4,1 C 55 % 48 % 100 % 1016,7 hPa 0,0 l/m 7,7 km/h (2 Bft) 2 min 12,8 km/h (3 Bft)
26.08.2009 12:30 22,5 C 24,7 C 12,8 UV-I 3,3 C 54 % 48 % 94 % 1016,7 hPa 0,0 l/m 8,7 km/h (2 Bft) 2 min 13,0 km/h (3 Bft)
26.08.2009 12:32 22,6 C 24,7 C 12,8 UV-I 3,4 C 54 % 48 % 97 % 1016,7 hPa 0,0 l/m 8,4 km/h (2 Bft) 2 min 3,8 km/h (1 Bft)
26.08.2009 12:34 22,6 C 24,8 C 12,8 UV-I 3,6 C 54 % 48 % 100 % 1016,7 hPa 0,0 l/m 7,9 km/h (2 Bft) 2 min 4,1 km/h (1 Bft)
26.08.2009 12:36 22,6 C 24,9 C 12,8 UV-I 3,7 C 54 % 47 % 100 % 1016,6 hPa 0,0 l/m 7,5 km/h (2 Bft) 2 min 8,2 km/h (2 Bft)
26.08.2009 12:38 22,6 C 24,9 C 12,5 UV-I 3,7 C 54 % 47 % 100 % 1016,6 hPa 0,0 l/m 6,5 km/h (2 Bft) 2 min 3,4 km/h (1 Bft)
26.08.2009 12:44 22,7 C 25,1 C 9,1 UV-I 3,5 C 54 % 47 % 100 % 1016,6 hPa 0,0 l/m 5,8 km/h (2 Bft) 2 min 7,9 km/h (2 Bft)
26.08.2009 12:46 22,7 C 25,0 C 9,1 UV-I 2,9 C 54 % 46 % 83 % 1016,6 hPa 0,0 l/m 5,3 km/h (1 Bft) 2 min 7,2 km/h (2 Bft)
26.08.2009 12:50 22,8 C 24,9 C 3,7 UV-I 2,1 C 53 % 46 % 60 % 1016,6 hPa 0,0 l/m 4,1 km/h (1 Bft) 0 min 9,6 km/h (2 Bft)
26.08.2009 12:54 22,8 C 24,7 C 2,8 UV-I 1,5 C 53 % 44 % 43 % 1016,6 hPa 0,0 l/m 3,4 km/h (1 Bft) 0 min 6,3 km/h (2 Bft)
26.08.2009 12:56 22,8 C 24,7 C 2,8 UV-I 1,3 C 53 % 46 % 37 % 1016,8 hPa 0,0 l/m 3,1 km/h (1 Bft) 0 min 3,6 km/h (1 Bft)
26.08.2009 12:58 22,8 C 24,7 C 3,3 UV-I 1,2 C 53 % 46 % 34 % 1016,8 hPa 0,0 l/m 3,6 km/h (1 Bft) 0 min 7,5 km/h (2 Bft)
26.08.2009 13:00 22,8 C 24,8 C 3,3 UV-I 1,0 C 53 % 45 % 29 % 1016,8 hPa 0,0 l/m 4,1 km/h (1 Bft) 0 min 9,6 km/h (2 Bft)
26.08.2009 13:04 22,9 C 24,8 C 3,6 UV-I 1,2 C 53 % 46 % 34 % 1016,8 hPa 0,0 l/m 4,3 km/h (1 Bft) 0 min 8,7 km/h (2 Bft)
26.08.2009 13:06 22,9 C 24,8 C 3,6 UV-I 2,0 C 53 % 46 % 57 % 1016,8 hPa 0,0 l/m 3,8 km/h (1 Bft) 0 min 8,7 km/h (2 Bft)
26.08.2009 13:08 23,0 C 25,0 C 6,2 UV-I 3,0 C 52 % 45 % 86 % 1016,8 hPa 0,0 l/m 4,6 km/h (1 Bft) 2 min 20,7 km/h (4 Bft)
26.08.2009 13:12 23,0 C 25,1 C 5,9 UV-I 3,5 C 52 % 45 % 100 % 1016,8 hPa 0,0 l/m 4,6 km/h (1 Bft) 2 min 9,4 km/h (2 Bft)
26.08.2009 13:14 23,0 C 25,3 C 5,9 UV-I 3,9 C 52 % 45 % 100 % 1016,8 hPa 0,0 l/m 4,8 km/h (1 Bft) 2 min 10,1 km/h (2 Bft)
26.08.2009 13:16 23,1 C 25,3 C 5,9 UV-I 4,3 C 52 % 45 % 100 % 1016,5 hPa 0,0 l/m 5,3 km/h (1 Bft) 2 min 15,4 km/h (3 Bft)
26.08.2009 13:18 23,1 C 25,5 C 6,7 UV-I 4,3 C 52 % 46 % 100 % 1016,5 hPa 0,0 l/m 6,0 km/h (2 Bft) 2 min 7,9 km/h (2 Bft)
26.08.2009 13:20 23,1 C 25,4 C 6,7 UV-I 4,6 C 52 % 45 % 100 % 1016,5 hPa 0,0 l/m 6,5 km/h (2 Bft) 2 min 10,8 km/h (2 Bft)
26.08.2009 13:24 23,2 C 25,6 C 4,0 UV-I 3,0 C 52 % 44 % 86 % 1016,5 hPa 0,0 l/m 5,5 km/h (1 Bft) 2 min 7,2 km/h (2 Bft)
26.08.2009 13:26 23,2 C 25,6 C 4,0 UV-I 3,2 C 52 % 45 % 91 % 1016,5 hPa 0,0 l/m 4,8 km/h (1 Bft) 2 min 4,3 km/h (1 Bft)
26.08.2009 13:28 23,2 C 25,9 C 6,0 UV-I 3,3 C 52 % 44 % 94 % 1016,5 hPa 0,0 l/m 4,8 km/h (1 Bft) 2 min 5,3 km/h (1 Bft)
26.08.2009 13:30 23,2 C 25,8 C 6,0 UV-I 3,6 C 52 % 44 % 100 % 1016,5 hPa 0,0 l/m 4,8 km/h (1 Bft) 2 min 9,6 km/h (2 Bft)
26.08.2009 13:34 23,2 C 25,9 C 4,9 UV-I 3,3 C 52 % 43 % 94 % 1016,5 hPa 0,0 l/m 7,5 km/h (2 Bft) 2 min 16,4 km/h (3 Bft)
26.08.2009 13:36 23,4 C 25,9 C 4,9 UV-I 3,1 C 51 % 43 % 89 % 1016,7 hPa 0,0 l/m 9,1 km/h (2 Bft) 2 min 14,0 km/h (3 Bft)
26.08.2009 13:40 23,5 C 26,1 C 5,1 UV-I 3,3 C 51 % 43 % 94 % 1016,7 hPa 0,0 l/m 7,7 km/h (2 Bft) 2 min 4,3 km/h (1 Bft)
26.08.2009 13:46 23,6 C 26,2 C 4,9 UV-I 4,0 C 51 % 43 % 100 % 1016,7 hPa 0,0 l/m 4,8 km/h (1 Bft) 2 min 29,6 km/h (5 Bft)
26.08.2009 13:48 23,7 C 26,3 C 6,2 UV-I 3,7 C 51 % 41 % 100 % 1016,7 hPa 0,0 l/m 5,8 km/h (2 Bft) 2 min 16,1 km/h (3 Bft)
26.08.2009 13:50 23,7 C 26,5 C 6,2 UV-I 3,3 C 51 % 41 % 94 % 1016,7 hPa 0,0 l/m 6,0 km/h (2 Bft) 2 min 15,6 km/h (3 Bft)
26.08.2009 13:52 23,8 C 26,3 C 7,0 UV-I 3,3 C 50 % 42 % 94 % 1016,7 hPa 0,0 l/m 6,0 km/h (2 Bft) 2 min 5,8 km/h (2 Bft)
26.08.2009 13:54 23,8 C 26,3 C 7,0 UV-I 2,9 C 50 % 41 % 83 % 1016,7 hPa 0,0 l/m 6,3 km/h (2 Bft) 2 min 7,0 km/h (2 Bft)
26.08.2009 13:58 23,9 C 26,3 C 5,6 UV-I 2,2 C 50 % 42 % 63 % 1016,9 hPa 0,0 l/m 4,6 km/h (1 Bft) 0 min 7,7 km/h (2 Bft)
26.08.2009 14:00 23,9 C 26,3 C 5,6 UV-I 1,9 C 50 % 42 % 54 % 1016,9 hPa 0,0 l/m 3,6 km/h (1 Bft) 0 min 5,8 km/h (2 Bft)
26.08.2009 14:02 24,0 C 26,3 C 5,1 UV-I 1,8 C 50 % 42 % 51 % 1016,9 hPa 0,0 l/m 3,6 km/h (1 Bft) 0 min 6,7 km/h (2 Bft)
26.08.2009 14:08 24,0 C 26,0 C 4,8 UV-I 1,7 C 50 % 42 % 49 % 1016,9 hPa 0,0 l/m 2,6 km/h (1 Bft) 0 min 7,0 km/h (2 Bft)
26.08.2009 14:16 24,2 C 26,4 C 9,2 UV-I 3,8 C 49 % 42 % 100 % 1017,4 hPa 0,0 l/m 2,9 km/h (1 Bft) 2 min 14,4 km/h (3 Bft)
26.08.2009 14:18 24,4 C 26,6 C 8,6 UV-I 3,6 C 49 % 41 % 100 % 1017,4 hPa 0,0 l/m 3,6 km/h (1 Bft) 2 min 9,6 km/h (2 Bft)
26.08.2009 14:24 24,6 C 26,8 C 8,5 UV-I 2,9 C 49 % 39 % 83 % 1017,4 hPa 0,0 l/m 8,2 km/h (2 Bft) 2 min 13,0 km/h (3 Bft)
26.08.2009 14:28 24,7 C 26,7 C 9,5 UV-I 2,7 C 48 % 38 % 77 % 1017,4 hPa 0,0 l/m 8,7 km/h (2 Bft) 0 min 9,1 km/h (2 Bft)
26.08.2009 14:30 24,8 C 26,7 C 9,5 UV-I 3,0 C 48 % 38 % 86 % 1017,4 hPa 0,0 l/m 7,9 km/h (2 Bft) 2 min 9,1 km/h (2 Bft)
26.08.2009 14:34 24,9 C 26,9 C 9,4 UV-I 3,3 C 47 % 39 % 94 % 1017,4 hPa 0,0 l/m 5,5 km/h (1 Bft) 2 min 10,8 km/h (2 Bft)
26.08.2009 14:39 25,1 C 27,0 C 8,6 UV-I 3,0 C 46 % 38 % 86 % 1020,1 hPa 0,0 l/m 6,0 km/h (2 Bft) 2 min 4,6 km/h (1 Bft)
26.08.2009 14:44 25,2 C 26,9 C 7,7 UV-I 2,5 C 46 % 38 % 71 % 1020,1 hPa 0,0 l/m 8,4 km/h (2 Bft) 0 min 2,6 km/h (1 Bft)
26.08.2009 14:49 25,3 C 26,8 C 5,7 UV-I 1,3 C 45 % 38 % 37 % 1020,1 hPa 0,0 l/m 9,9 km/h (2 Bft) 0 min 3,4 km/h (1 Bft)
26.08.2009 14:54 25,4 C 26,9 C 7,0 UV-I 1,4 C 45 % 40 % 40 % 1020,1 hPa 0,0 l/m 7,5 km/h (2 Bft) 0 min 7,7 km/h (2 Bft)
26.08.2009 14:59 25,5 C 26,9 C 6,7 UV-I 1,8 C 45 % 37 % 51 % 1018,9 hPa 0,0 l/m 5,8 km/h (2 Bft) 0 min 7,7 km/h (2 Bft)
26.08.2009 15:04 25,5 C 26,7 C 5,3 UV-I 1,3 C 44 % 38 % 37 % 1018,9 hPa 0,0 l/m 6,3 km/h (2 Bft) 0 min 7,9 km/h (2 Bft)
26.08.2009 15:09 25,5 C 26,5 C 4,7 UV-I 1,0 C 44 % 38 % 29 % 1018,9 hPa 0,0 l/m 6,0 km/h (2 Bft) 0 min 7,5 km/h (2 Bft)
26.08.2009 15:14 25,6 C 26,6 C 6,8 UV-I 1,5 C 44 % 39 % 43 % 1018,9 hPa 0,0 l/m 4,8 km/h (1 Bft) 0 min 5,8 km/h (2 Bft)
26.08.2009 15:19 25,7 C 26,9 C 6,8 UV-I 2,6 C 44 % 39 % 74 % 1018,9 hPa 0,0 l/m 3,6 km/h (1 Bft) 0 min 2,6 km/h (1 Bft)
26.08.2009 15:24 25,7 C 26,7 C 5,7 UV-I 2,6 C 44 % 38 % 74 % 1018,9 hPa 0,0 l/m 4,1 km/h (1 Bft) 0 min 10,3 km/h (2 Bft)
26.08.2009 15:29 25,8 C 26,7 C 6,5 UV-I 2,4 C 44 % 39 % 69 % 1018,9 hPa 0,0 l/m 3,1 km/h (1 Bft) 0 min 5,3 km/h (1 Bft)
26.08.2009 15:34 25,8 C 26,7 C 4,6 UV-I 2,0 C 44 % 38 % 57 % 1018,9 hPa 0,0 l/m 3,1 km/h (1 Bft) 0 min 4,3 km/h (1 Bft)
26.08.2009 15:39 25,8 C 26,6 C 5,7 UV-I 2,1 C 44 % 38 % 60 % 1017,7 hPa 0,0 l/m 2,9 km/h (1 Bft) 0 min 5,5 km/h (1 Bft)
26.08.2009 15:44 25,8 C 26,5 C 3,8 UV-I 1,7 C 44 % 38 % 49 % 1017,7 hPa 0,0 l/m 2,4 km/h (1 Bft) 0 min 5,1 km/h (1 Bft)
26.08.2009 15:49 25,8 C 26,5 C 4,4 UV-I 1,5 C 44 % 38 % 43 % 1017,7 hPa 0,0 l/m 2,6 km/h (1 Bft) 0 min 6,0 km/h (2 Bft)
26.08.2009 15:50 25,8 C 26,3 C 4,4 UV-I 1,7 C 44 % 39 % 49 % 1017,7 hPa 0,0 l/m 2,6 km/h (1 Bft) 0 min 2,9 km/h (1 Bft)
26.08.2009 15:52 25,8 C 26,3 C 3,7 UV-I 1,5 C 44 % 39 % 43 % 1017,7 hPa 0,0 l/m 3,4 km/h (1 Bft) 0 min 14,2 km/h (3 Bft)
26.08.2009 15:54 25,8 C 26,3 C 3,7 UV-I 1,3 C 44 % 40 % 37 % 1017,7 hPa 0,0 l/m 3,8 km/h (1 Bft) 0 min 14,2 km/h (3 Bft)
26.08.2009 15:56 25,8 C 26,3 C 3,7 UV-I 1,1 C 44 % 40 % 31 % 1017,7 hPa 0,0 l/m 4,1 km/h (1 Bft) 0 min 7,9 km/h (2 Bft)
26.08.2009 15:58 25,8 C 26,3 C 5,4 UV-I 1,3 C 44 % 40 % 37 % 1017,7 hPa 0,0 l/m 4,3 km/h (1 Bft) 0 min 7,9 km/h (2 Bft)
26.08.2009 16:00 25,9 C 26,3 C 5,4 UV-I 1,5 C 44 % 40 % 43 % 1017,7 hPa 0,0 l/m 6,0 km/h (2 Bft) 0 min 8,2 km/h (2 Bft)
26.08.2009 16:02 25,9 C 26,3 C 4,4 UV-I 1,5 C 44 % 40 % 43 % 1017,7 hPa 0,0 l/m 6,3 km/h (2 Bft) 0 min 8,2 km/h (2 Bft)
26.08.2009 16:04 25,9 C 26,3 C 4,4 UV-I 1,3 C 44 % 39 % 37 % 1017,7 hPa 0,0 l/m 6,3 km/h (2 Bft) 0 min 9,9 km/h (2 Bft)
26.08.2009 16:06 25,9 C 26,3 C 4,4 UV-I 1,3 C 44 % 39 % 37 % 1017,7 hPa 0,0 l/m 7,2 km/h (2 Bft) 0 min 13,0 km/h (3 Bft)
26.08.2009 16:08 25,9 C 26,2 C 3,1 UV-I 1,5 C 44 % 39 % 43 % 1017,7 hPa 0,0 l/m 7,5 km/h (2 Bft) 0 min 13,0 km/h (3 Bft)
26.08.2009 16:10 26,0 C 26,2 C 3,1 UV-I 1,7 C 43 % 39 % 49 % 1017,7 hPa 0,0 l/m 6,5 km/h (2 Bft) 0 min 5,3 km/h (1 Bft)
26.08.2009 16:12 26,0 C 26,3 C 3,0 UV-I 1,7 C 43 % 40 % 49 % 1017,7 hPa 0,0 l/m 6,0 km/h (2 Bft) 0 min 5,3 km/h (1 Bft)
26.08.2009 16:14 26,0 C 26,3 C 3,0 UV-I 2,1 C 43 % 42 % 60 % 1017,7 hPa 0,0 l/m 5,3 km/h (1 Bft) 0 min 4,3 km/h (1 Bft)
26.08.2009 16:16 26,1 C 26,3 C 3,0 UV-I 2,4 C 43 % 41 % 69 % 1018,1 hPa 0,0 l/m 5,1 km/h (1 Bft) 0 min 9,1 km/h (2 Bft)
26.08.2009 16:18 26,1 C 26,4 C 3,1 UV-I 2,5 C 43 % 40 % 71 % 1018,1 hPa 0,0 l/m 4,1 km/h (1 Bft) 0 min 9,1 km/h (2 Bft)
26.08.2009 16:20 26,1 C 26,3 C 3,1 UV-I 2,8 C 43 % 39 % 80 % 1018,1 hPa 0,0 l/m 4,3 km/h (1 Bft) 0 min 6,7 km/h (2 Bft)
26.08.2009 16:22 26,2 C 26,3 C 2,9 UV-I 2,7 C 43 % 39 % 77 % 1018,1 hPa 0,0 l/m 4,1 km/h (1 Bft) 0 min 5,1 km/h (1 Bft)
26.08.2009 16:24 26,2 C 26,3 C 2,9 UV-I 2,7 C 43 % 40 % 77 % 1018,1 hPa 0,0 l/m 4,6 km/h (1 Bft) 0 min 5,1 km/h (1 Bft)
26.08.2009 16:26 26,2 C 26,3 C 2,9 UV-I 3,1 C 43 % 41 % 89 % 1018,1 hPa 0,0 l/m 4,3 km/h (1 Bft) 2 min 3,8 km/h (1 Bft)
26.08.2009 16:28 26,3 C 26,4 C 2,8 UV-I 3,1 C 43 % 40 % 89 % 1018,1 hPa 0,0 l/m 3,8 km/h (1 Bft) 2 min 3,8 km/h (1 Bft)
26.08.2009 16:30 26,2 C 26,5 C 2,8 UV-I 2,9 C 43 % 41 % 83 % 1018,1 hPa 0,0 l/m 3,6 km/h (1 Bft) 2 min 2,6 km/h (1 Bft)
26.08.2009 16:32 26,4 C 26,4 C 2,7 UV-I 3,0 C 43 % 40 % 86 % 1018,1 hPa 0,0 l/m 2,9 km/h (1 Bft) 2 min 2,6 km/h (1 Bft)
26.08.2009 16:34 26,4 C 26,4 C 2,7 UV-I 2,8 C 43 % 40 % 80 % 1018,1 hPa 0,0 l/m 2,6 km/h (1 Bft) 0 min 4,6 km/h (1 Bft)
26.08.2009 16:36 26,4 C 26,4 C 2,7 UV-I 2,5 C 43 % 40 % 71 % 1017,9 hPa 0,0 l/m 2,9 km/h (1 Bft) 0 min 10,3 km/h (2 Bft)
26.08.2009 16:38 26,2 C 26,3 C 2,4 UV-I 2,2 C 43 % 40 % 63 % 1017,9 hPa 0,0 l/m 2,9 km/h (1 Bft) 0 min 10,3 km/h (2 Bft)
26.08.2009 16:40 26,2 C 26,3 C 2,4 UV-I 2,0 C 43 % 40 % 57 % 1017,9 hPa 0,0 l/m 2,6 km/h (1 Bft) 0 min 7,2 km/h (2 Bft)
26.08.2009 16:42 26,2 C 26,3 C 2,7 UV-I 2,0 C 43 % 41 % 57 % 1017,9 hPa 0,0 l/m 2,9 km/h (1 Bft) 0 min 7,2 km/h (2 Bft)
26.08.2009 16:44 26,4 C 26,5 C 2,7 UV-I 2,2 C 43 % 41 % 63 % 1017,9 hPa 0,0 l/m 3,1 km/h (1 Bft) 0 min 4,6 km/h (1 Bft)
26.08.2009 16:46 26,4 C 26,5 C 2,7 UV-I 2,5 C 43 % 41 % 71 % 1017,9 hPa 0,0 l/m 2,9 km/h (1 Bft) 0 min 4,6 km/h (1 Bft)
26.08.2009 16:48 26,4 C 26,5 C 3,2 UV-I 3,1 C 43 % 40 % 89 % 1017,9 hPa 0,0 l/m 2,6 km/h (1 Bft) 2 min 5,8 km/h (2 Bft)
26.08.2009 16:50 26,4 C 26,5 C 3,2 UV-I 3,8 C 43 % 41 % 100 % 1017,9 hPa 0,0 l/m 2,6 km/h (1 Bft) 2 min 5,8 km/h (2 Bft)
26.08.2009 16:52 26,5 C 26,7 C 3,0 UV-I 4,1 C 43 % 40 % 100 % 1017,9 hPa 0,0 l/m 2,9 km/h (1 Bft) 2 min 3,1 km/h (1 Bft)
26.08.2009 16:54 26,6 C 26,7 C 3,0 UV-I 4,7 C 43 % 40 % 100 % 1017,9 hPa 0,0 l/m 2,6 km/h (1 Bft) 2 min 7,7 km/h (2 Bft)
26.08.2009 16:56 26,6 C 26,7 C 3,0 UV-I 4,8 C 43 % 40 % 100 % 1017,8 hPa 0,0 l/m 2,9 km/h (1 Bft) 2 min 7,7 km/h (2 Bft)
26.08.2009 16:58 26,6 C 26,8 C 2,8 UV-I 4,7 C 43 % 40 % 100 % 1017,8 hPa 0,0 l/m 2,6 km/h (1 Bft) 2 min 3,8 km/h (1 Bft)
26.08.2009 17:00 26,6 C 26,8 C 2,8 UV-I 4,6 C 43 % 40 % 100 % 1017,8 hPa 0,0 l/m 2,6 km/h (1 Bft) 2 min 4,6 km/h (1 Bft)
26.08.2009 17:02 26,6 C 26,9 C 2,5 UV-I 4,6 C 43 % 40 % 100 % 1017,8 hPa 0,0 l/m 2,9 km/h (1 Bft) 2 min 5,1 km/h (1 Bft)
26.08.2009 17:04 26,6 C 26,9 C 2,5 UV-I 4,8 C 43 % 40 % 100 % 1017,8 hPa 0,0 l/m 3,6 km/h (1 Bft) 2 min 11,3 km/h (2 Bft)
26.08.2009 17:06 26,6 C 26,8 C 2,5 UV-I 4,8 C 43 % 40 % 100 % 1017,8 hPa 0,0 l/m 3,1 km/h (1 Bft) 2 min 11,3 km/h (2 Bft)
26.08.2009 17:08 26,6 C 26,8 C 2,2 UV-I 4,7 C 43 % 40 % 100 % 1017,8 hPa 0,0 l/m 3,6 km/h (1 Bft) 2 min 4,6 km/h (1 Bft)
26.08.2009 17:10 26,6 C 26,8 C 2,2 UV-I 4,3 C 43 % 40 % 100 % 1017,8 hPa 0,0 l/m 3,8 km/h (1 Bft) 2 min 7,0 km/h (2 Bft)
26.08.2009 17:12 26,6 C 26,8 C 1,8 UV-I 3,9 C 43 % 40 % 100 % 1017,8 hPa 0,0 l/m 4,1 km/h (1 Bft) 2 min 10,6 km/h (2 Bft)
26.08.2009 17:14 26,6 C 26,7 C 1,8 UV-I 3,7 C 43 % 39 % 100 % 1017,8 hPa 0,0 l/m 3,6 km/h (1 Bft) 2 min 10,6 km/h (2 Bft)
26.08.2009 17:16 26,6 C 26,7 C 1,8 UV-I 3,1 C 43 % 40 % 89 % 1017,4 hPa 0,0 l/m 3,4 km/h (1 Bft) 2 min 2,9 km/h (1 Bft)
26.08.2009 17:18 26,6 C 26,6 C 2,0 UV-I 2,8 C 43 % 40 % 80 % 1017,4 hPa 0,0 l/m 3,1 km/h (1 Bft) 0 min 2,9 km/h (1 Bft)
26.08.2009 17:20 26,5 C 26,7 C 2,0 UV-I 2,2 C 43 % 40 % 63 % 1017,4 hPa 0,0 l/m 2,6 km/h (1 Bft) 0 min 0,0 km/h (0 Bft)
26.08.2009 17:22 26,5 C 26,5 C 2,1 UV-I 2,0 C 43 % 40 % 57 % 1017,4 hPa 0,0 l/m 2,6 km/h (1 Bft) 0 min 6,3 km/h (2 Bft)
26.08.2009 17:24 26,4 C 26,5 C 2,1 UV-I 1,7 C 43 % 40 % 49 % 1017,4 hPa 0,0 l/m 2,2 km/h (1 Bft) 0 min 6,3 km/h (2 Bft)
26.08.2009 17:26 26,4 C 26,5 C 2,1 UV-I 1,3 C 43 % 41 % 37 % 1017,4 hPa 0,0 l/m 1,9 km/h (1 Bft) 0 min 4,1 km/h (1 Bft)
26.08.2009 17:28 26,4 C 26,4 C 1,8 UV-I 1,1 C 43 % 41 % 31 % 1017,4 hPa 0,0 l/m 1,7 km/h (1 Bft) 0 min 4,1 km/h (1 Bft)
26.08.2009 17:30 26,4 C 26,4 C 1,8 UV-I 1,0 C 44 % 41 % 29 % 1017,4 hPa 0,0 l/m 1,7 km/h (1 Bft) 0 min 4,1 km/h (1 Bft)
26.08.2009 17:32 26,4 C 26,3 C 1,5 UV-I 0,9 C 44 % 41 % 26 % 1017,4 hPa 0,0 l/m 1,9 km/h (1 Bft) 0 min 6,7 km/h (2 Bft)
26.08.2009 17:34 26,2 C 26,2 C 1,5 UV-I 0,7 C 44 % 40 % 20 % 1017,4 hPa 0,0 l/m 1,9 km/h (1 Bft) 0 min 9,6 km/h (2 Bft)
26.08.2009 17:36 26,3 C 26,2 C 1,5 UV-I 0,5 C 44 % 41 % 14 % 1016,9 hPa 0,0 l/m 2,2 km/h (1 Bft) 0 min 9,6 km/h (2 Bft)
26.08.2009 17:38 26,2 C 26,3 C 1,0 UV-I 0,2 C 44 % 42 % 6 % 1016,9 hPa 0,0 l/m 2,4 km/h (1 Bft) 0 min 4,8 km/h (1 Bft)
26.08.2009 17:40 26,2 C 26,2 C 1,0 UV-I 0,2 C 44 % 42 % 6 % 1016,9 hPa 0,0 l/m 2,4 km/h (1 Bft) 0 min 4,8 km/h (1 Bft)
26.08.2009 17:42 26,2 C 26,1 C 1,0 UV-I 0,1 C 44 % 42 % 3 % 1016,9 hPa 0,0 l/m 2,2 km/h (1 Bft) 0 min 4,8 km/h (1 Bft)
26.08.2009 17:44 26,1 C 26,1 C 1,0 UV-I 0,0 C 44 % 42 % 0 % 1016,9 hPa 0,0 l/m 1,9 km/h (1 Bft) 0 min 0,0 km/h (0 Bft)
26.08.2009 17:46 26,1 C 26,0 C 1,0 UV-I 0,0 C 44 % 42 % 0 % 1016,9 hPa 0,0 l/m 1,2 km/h (1 Bft) 0 min 0,0 km/h (0 Bft)
26.08.2009 17:48 26,0 C 26,0 C 1,2 UV-I 0,0 C 44 % 42 % 0 % 1016,9 hPa 0,0 l/m 1,0 km/h (0 Bft) 0 min 0,0 km/h (0 Bft)
26.08.2009 17:50 26,0 C 26,0 C 1,2 UV-I 0,0 C 44 % 43 % 0 % 1016,9 hPa 0,0 l/m 1,0 km/h (0 Bft) 0 min 0,0 km/h (0 Bft)
26.08.2009 17:52 26,0 C 26,0 C 1,0 UV-I 0,0 C 44 % 44 % 0 % 1016,9 hPa 0,0 l/m 1,0 km/h (0 Bft) 0 min 4,8 km/h (1 Bft)
26.08.2009 17:54 26,0 C 25,9 C 1,0 UV-I 0,0 C 44 % 44 % 0 % 1016,9 hPa 0,0 l/m 0,7 km/h (0 Bft) 0 min 4,8 km/h (1 Bft)
26.08.2009 17:56 26,0 C 25,9 C 1,0 UV-I 0,0 C 45 % 43 % 0 % 1016,1 hPa 0,0 l/m 0,7 km/h (0 Bft) 0 min 2,4 km/h (1 Bft)
26.08.2009 17:58 25,9 C 25,9 C 1,1 UV-I 0,0 C 45 % 44 % 0 % 1016,1 hPa 0,0 l/m 1,2 km/h (1 Bft) 0 min 5,5 km/h (1 Bft)
26.08.2009 18:00 25,9 C 25,9 C 1,1 UV-I 0,0 C 45 % 44 % 0 % 1016,1 hPa 0,0 l/m 1,0 km/h (0 Bft) 0 min 5,5 km/h (1 Bft)
26.08.2009 18:02 25,8 C 25,9 C 0,9 UV-I 0,0 C 45 % 44 % 0 % 1016,1 hPa 0,0 l/m 1,0 km/h (0 Bft) 0 min 0,0 km/h (0 Bft)
26.08.2009 18:04 25,8 C 25,9 C 0,9 UV-I 0,0 C 45 % 43 % 0 % 1016,1 hPa 0,0 l/m 1,0 km/h (0 Bft) 0 min 0,0 km/h (0 Bft)
26.08.2009 18:06 25,8 C 25,9 C 0,9 UV-I 0,0 C 45 % 44 % 0 % 1016,1 hPa 0,0 l/m 0,7 km/h (0 Bft) 0 min 3,8 km/h (1 Bft)
26.08.2009 18:08 25,7 C 25,7 C 0,9 UV-I 0,0 C 45 % 44 % 0 % 1016,1 hPa 0,0 l/m 0,7 km/h (0 Bft) 0 min 3,8 km/h (1 Bft)
26.08.2009 18:10 25,7 C 25,7 C 0,9 UV-I 0,0 C 45 % 44 % 0 % 1016,1 hPa 0,0 l/m 1,0 km/h (0 Bft) 0 min 2,9 km/h (1 Bft)
26.08.2009 18:12 25,7 C 25,6 C 0,9 UV-I 0,0 C 45 % 44 % 0 % 1016,1 hPa 0,0 l/m 1,2 km/h (1 Bft) 0 min 6,5 km/h (2 Bft)
26.08.2009 18:14 25,6 C 25,5 C 0,9 UV-I 0,0 C 45 % 43 % 0 % 1016,1 hPa 0,0 l/m 1,9 km/h (1 Bft) 0 min 6,5 km/h (2 Bft)
26.08.2009 18:16 25,6 C 25,5 C 0,9 UV-I 0,0 C 45 % 43 % 0 % 1015,9 hPa 0,0 l/m 2,4 km/h (1 Bft) 0 min 6,3 km/h (2 Bft)
26.08.2009 18:18 25,6 C 25,4 C 0,7 UV-I 0,0 C 45 % 44 % 0 % 1015,9 hPa 0,0 l/m 2,6 km/h (1 Bft) 0 min 5,5 km/h (1 Bft)
26.08.2009 18:20 25,6 C 25,5 C 0,7 UV-I 0,0 C 46 % 44 % 0 % 1015,9 hPa 0,0 l/m 2,4 km/h (1 Bft) 0 min 3,4 km/h (1 Bft)
26.08.2009 18:22 25,5 C 25,4 C 0,5 UV-I 0,0 C 46 % 44 % 0 % 1015,9 hPa 0,0 l/m 2,2 km/h (1 Bft) 0 min 2,4 km/h (1 Bft)
26.08.2009 18:24 25,5 C 25,5 C 0,5 UV-I 0,0 C 46 % 44 % 0 % 1015,9 hPa 0,0 l/m 1,9 km/h (1 Bft) 0 min 2,6 km/h (1 Bft)
26.08.2009 18:26 25,4 C 25,3 C 0,5 UV-I 0,0 C 46 % 44 % 0 % 1015,9 hPa 0,0 l/m 1,9 km/h (1 Bft) 0 min 4,3 km/h (1 Bft)
26.08.2009 18:28 25,4 C 25,3 C 0,6 UV-I 0,0 C 46 % 44 % 0 % 1015,9 hPa 0,0 l/m 1,4 km/h (1 Bft) 0 min 4,3 km/h (1 Bft)
26.08.2009 18:30 25,4 C 25,2 C 0,6 UV-I 0,0 C 46 % 44 % 0 % 1015,9 hPa 0,0 l/m 1,4 km/h (1 Bft) 0 min 2,4 km/h (1 Bft)
26.08.2009 18:32 25,4 C 25,3 C 0,8 UV-I 0,0 C 46 % 44 % 0 % 1015,9 hPa 0,0 l/m 1,4 km/h (1 Bft) 0 min 6,3 km/h (2 Bft)
26.08.2009 18:34 25,4 C 25,2 C 0,8 UV-I 0,0 C 46 % 44 % 0 % 1015,9 hPa 0,0 l/m 1,4 km/h (1 Bft) 0 min 6,3 km/h (2 Bft)
26.08.2009 18:36 25,4 C 25,2 C 0,8 UV-I 0,0 C 46 % 44 % 0 % 1015,7 hPa 0,0 l/m 1,4 km/h (1 Bft) 0 min 4,1 km/h (1 Bft)
26.08.2009 18:38 25,4 C 25,2 C 0,6 UV-I 0,0 C 46 % 45 % 0 % 1015,7 hPa 0,0 l/m 1,2 km/h (1 Bft) 0 min 4,1 km/h (1 Bft)
26.08.2009 18:40 25,4 C 25,1 C 0,6 UV-I 0,0 C 46 % 45 % 0 % 1015,7 hPa 0,0 l/m 1,0 km/h (0 Bft) 0 min 0,0 km/h (0 Bft)
26.08.2009 18:42 25,4 C 25,1 C 0,6 UV-I 0,0 C 46 % 45 % 0 % 1015,7 hPa 0,0 l/m 1,2 km/h (1 Bft) 0 min 5,8 km/h (2 Bft)
26.08.2009 18:44 25,4 C 25,0 C 0,6 UV-I 0,0 C 47 % 45 % 0 % 1015,7 hPa 0,0 l/m 1,4 km/h (1 Bft) 0 min 5,8 km/h (2 Bft)
26.08.2009 18:46 25,4 C 25,0 C 0,6 UV-I 0,0 C 47 % 45 % 0 % 1015,7 hPa 0,0 l/m 1,4 km/h (1 Bft) 0 min 6,7 km/h (2 Bft)
26.08.2009 18:48 25,4 C 25,1 C 0,5 UV-I 0,0 C 47 % 45 % 0 % 1015,7 hPa 0,0 l/m 1,4 km/h (1 Bft) 0 min 6,7 km/h (2 Bft)
26.08.2009 18:50 25,4 C 25,0 C 0,5 UV-I 0,0 C 47 % 45 % 0 % 1015,7 hPa 0,0 l/m 1,9 km/h (1 Bft) 0 min 5,3 km/h (1 Bft)
26.08.2009 18:52 25,4 C 25,1 C 0,5 UV-I 0,0 C 47 % 45 % 0 % 1015,7 hPa 0,0 l/m 1,9 km/h (1 Bft) 0 min 5,3 km/h (1 Bft)
26.08.2009 18:54 25,4 C 25,1 C 0,5 UV-I 0,0 C 47 % 45 % 0 % 1015,7 hPa 0,0 l/m 1,4 km/h (1 Bft) 0 min 3,8 km/h (1 Bft)
26.08.2009 18:56 25,4 C 25,0 C 0,5 UV-I 0,0 C 47 % 45 % 0 % 1015,4 hPa 0,0 l/m 1,4 km/h (1 Bft) 0 min 3,8 km/h (1 Bft)
26.08.2009 18:58 25,4 C 24,9 C 0,4 UV-I 0,1 C 47 % 45 % 3 % 1015,4 hPa 0,0 l/m 1,4 km/h (1 Bft) 0 min 2,9 km/h (1 Bft)
26.08.2009 19:00 25,4 C 24,9 C 0,4 UV-I 0,1 C 47 % 45 % 3 % 1015,4 hPa 0,0 l/m 1,4 km/h (1 Bft) 0 min 2,6 km/h (1 Bft)
26.08.2009 19:02 25,4 C 24,9 C 0,7 UV-I 0,1 C 46 % 46 % 3 % 1015,4 hPa 0,0 l/m 1,2 km/h (1 Bft) 0 min 2,9 km/h (1 Bft)
26.08.2009 19:04 25,2 C 24,9 C 0,7 UV-I 0,1 C 46 % 46 % 3 % 1015,4 hPa 0,0 l/m 1,4 km/h (1 Bft) 0 min 2,9 km/h (1 Bft)
26.08.2009 19:06 25,4 C 24,9 C 0,7 UV-I 0,1 C 46 % 46 % 3 % 1015,4 hPa 0,0 l/m 1,7 km/h (1 Bft) 0 min 8,4 km/h (2 Bft)
26.08.2009 19:08 25,2 C 24,9 C 0,7 UV-I 0,1 C 46 % 45 % 3 % 1015,4 hPa 0,0 l/m 1,9 km/h (1 Bft) 0 min 8,4 km/h (2 Bft)
26.08.2009 19:10 25,2 C 24,8 C 0,7 UV-I 0,2 C 46 % 44 % 6 % 1015,4 hPa 0,0 l/m 2,2 km/h (1 Bft) 0 min 4,3 km/h (1 Bft)
26.08.2009 19:12 25,2 C 24,9 C 0,7 UV-I 0,1 C 46 % 44 % 3 % 1015,4 hPa 0,0 l/m 2,4 km/h (1 Bft) 0 min 4,6 km/h (1 Bft)
26.08.2009 19:14 25,2 C 24,8 C 0,7 UV-I 0,1 C 46 % 44 % 3 % 1015,4 hPa 0,0 l/m 3,6 km/h (1 Bft) 0 min 13,2 km/h (3 Bft)
26.08.2009 19:16 25,3 C 24,8 C 0,7 UV-I 0,0 C 46 % 44 % 0 % 1015,4 hPa 0,0 l/m 4,6 km/h (1 Bft) 0 min 13,2 km/h (3 Bft)
26.08.2009 19:18 25,3 C 24,9 C 0,7 UV-I 0,0 C 46 % 44 % 0 % 1015,4 hPa 0,0 l/m 4,6 km/h (1 Bft) 0 min 7,9 km/h (2 Bft)
26.08.2009 19:20 25,2 C 24,8 C 0,7 UV-I 0,0 C 46 % 43 % 0 % 1015,4 hPa 0,0 l/m 4,8 km/h (1 Bft) 0 min 7,9 km/h (2 Bft)
26.08.2009 19:22 25,2 C 24,7 C 0,7 UV-I 0,0 C 46 % 44 % 0 % 1015,4 hPa 0,0 l/m 4,6 km/h (1 Bft) 0 min 7,2 km/h (2 Bft)
26.08.2009 19:24 25,2 C 24,7 C 0,7 UV-I 0,0 C 46 % 44 % 0 % 1015,4 hPa 0,0 l/m 3,8 km/h (1 Bft) 0 min 2,6 km/h (1 Bft)
26.08.2009 19:26 25,2 C 24,6 C 0,7 UV-I 0,0 C 46 % 44 % 0 % 1015,4 hPa 0,0 l/m 3,4 km/h (1 Bft) 0 min 5,8 km/h (2 Bft)
26.08.2009 19:28 25,2 C 24,6 C 0,3 UV-I 0,0 C 46 % 44 % 0 % 1015,4 hPa 0,0 l/m 3,6 km/h (1 Bft) 0 min 5,8 km/h (2 Bft)
26.08.2009 19:32 25,2 C 24,6 C 0,3 UV-I 0,0 C 46 % 44 % 0 % 1015,4 hPa 0,0 l/m 2,6 km/h (1 Bft) 0 min 2,4 km/h (1 Bft)
26.08.2009 19:34 25,1 C 24,7 C 0,3 UV-I 0,0 C 46 % 44 % 0 % 1015,4 hPa 0,0 l/m 2,2 km/h (1 Bft) 0 min 2,4 km/h (1 Bft)
26.08.2009 19:36 25,2 C 24,5 C 0,3 UV-I 0,0 C 46 % 44 % 0 % 1014,9 hPa 0,0 l/m 2,4 km/h (1 Bft) 0 min 11,5 km/h (2 Bft)
26.08.2009 19:38 25,1 C 24,5 C 0,1 UV-I 0,0 C 46 % 44 % 0 % 1014,9 hPa 0,0 l/m 1,7 km/h (1 Bft) 0 min 11,5 km/h (2 Bft)
26.08.2009 19:40 25,1 C 24,5 C 0,1 UV-I 0,0 C 46 % 44 % 0 % 1014,9 hPa 0,0 l/m 2,2 km/h (1 Bft) 0 min 6,3 km/h (2 Bft)
26.08.2009 19:42 25,1 C 24,4 C 0,1 UV-I 0,0 C 46 % 44 % 0 % 1014,9 hPa 0,0 l/m 2,2 km/h (1 Bft) 0 min 6,3 km/h (2 Bft)
26.08.2009 19:44 25,1 C 24,4 C 0,1 UV-I 0,0 C 46 % 45 % 0 % 1014,9 hPa 0,0 l/m 2,6 km/h (1 Bft) 0 min 3,6 km/h (1 Bft)
26.08.2009 19:46 25,0 C 24,3 C 0,1 UV-I 0,0 C 46 % 44 % 0 % 1014,9 hPa 0,0 l/m 3,4 km/h (1 Bft) 0 min 3,6 km/h (1 Bft)
26.08.2009 19:48 25,0 C 24,3 C 0,0 UV-I 0,0 C 46 % 45 % 0 % 1014,9 hPa 0,0 l/m 2,9 km/h (1 Bft) 0 min 3,8 km/h (1 Bft)
26.08.2009 19:50 25,0 C 24,2 C 0,0 UV-I 0,0 C 46 % 45 % 0 % 1014,9 hPa 0,0 l/m 2,4 km/h (1 Bft) 0 min 3,6 km/h (1 Bft)
26.08.2009 19:52 25,0 C 24,2 C 0,0 UV-I 0,0 C 46 % 45 % 0 % 1014,9 hPa 0,0 l/m 2,4 km/h (1 Bft) 0 min 3,6 km/h (1 Bft)
26.08.2009 19:54 25,0 C 24,2 C 0,0 UV-I 0,0 C 46 % 45 % 0 % 1014,9 hPa 0,0 l/m 2,2 km/h (1 Bft) 0 min 4,3 km/h (1 Bft)
26.08.2009 19:56 25,0 C 24,2 C 0,0 UV-I 0,0 C 46 % 45 % 0 % 1015,1 hPa 0,0 l/m 1,7 km/h (1 Bft) 0 min 4,3 km/h (1 Bft)
26.08.2009 19:58 25,0 C 24,0 C 0,0 UV-I 0,0 C 46 % 45 % 0 % 1015,1 hPa 0,0 l/m 1,4 km/h (1 Bft) 0 min 3,6 km/h (1 Bft)
26.08.2009 20:00 24,9 C 24,0 C 0,0 UV-I 0,0 C 46 % 45 % 0 % 1015,1 hPa 0,0 l/m 1,4 km/h (1 Bft) 0 min 0,0 km/h (0 Bft)
26.08.2009 20:02 24,9 C 24,0 C 0,0 UV-I 0,0 C 46 % 45 % 0 % 1015,1 hPa 0,0 l/m 1,0 km/h (0 Bft) 0 min 2,6 km/h (1 Bft)
26.08.2009 20:04 24,9 C 24,0 C 0,0 UV-I 0,0 C 46 % 46 % 0 % 1015,1 hPa 0,0 l/m 1,0 km/h (0 Bft) 0 min 2,6 km/h (1 Bft)
26.08.2009 20:08 24,9 C 23,9 C 0,0 UV-I 0,0 C 46 % 46 % 0 % 1015,1 hPa 0,0 l/m 0,7 km/h (0 Bft) 0 min 14,0 km/h (3 Bft)
26.08.2009 20:10 24,8 C 23,8 C 0,0 UV-I 0,0 C 47 % 46 % 0 % 1015,1 hPa 0,0 l/m 1,2 km/h (1 Bft) 0 min 14,0 km/h (3 Bft)
26.08.2009 20:12 24,8 C 23,9 C 0,0 UV-I 0,0 C 47 % 46 % 0 % 1015,1 hPa 0,0 l/m 1,4 km/h (1 Bft) 0 min 0,0 km/h (0 Bft)
26.08.2009 20:14 24,8 C 23,8 C 0,0 UV-I 0,0 C 47 % 47 % 0 % 1015,1 hPa 0,0 l/m 1,2 km/h (1 Bft) 0 min 0,0 km/h (0 Bft)
26.08.2009 20:18 24,8 C 23,7 C 0,0 UV-I 0,0 C 47 % 47 % 0 % 1015,0 hPa 0,0 l/m 1,2 km/h (1 Bft) 0 min 0,0 km/h (0 Bft)
26.08.2009 20:20 24,8 C 23,6 C 0,0 UV-I 0,0 C 47 % 48 % 0 % 1015,0 hPa 0,0 l/m 0,5 km/h (0 Bft) 0 min 0,0 km/h (0 Bft)
26.08.2009 20:22 24,8 C 23,6 C 0,0 UV-I 0,0 C 47 % 48 % 0 % 1015,0 hPa 0,0 l/m 0,0 km/h (0 Bft) 0 min 0,0 km/h (0 Bft)
26.08.2009 20:24 24,8 C 23,6 C 0,0 UV-I 0,0 C 47 % 49 % 0 % 1015,0 hPa 0,0 l/m 0,0 km/h (0 Bft) 0 min 2,4 km/h (1 Bft)
26.08.2009 20:26 24,8 C 23,5 C 0,0 UV-I 0,0 C 47 % 48 % 0 % 1015,0 hPa 0,0 l/m 0,2 km/h (0 Bft) 0 min 2,4 km/h (1 Bft)
26.08.2009 20:28 24,8 C 23,5 C 0,0 UV-I 0,0 C 47 % 48 % 0 % 1015,0 hPa 0,0 l/m 0,2 km/h (0 Bft) 0 min 0,0 km/h (0 Bft)
26.08.2009 20:30 24,7 C 23,5 C 0,0 UV-I 0,0 C 47 % 48 % 0 % 1015,0 hPa 0,0 l/m 0,2 km/h (0 Bft) 0 min 0,0 km/h (0 Bft)
26.08.2009 20:32 24,7 C 23,5 C 0,0 UV-I 0,0 C 47 % 49 % 0 % 1015,0 hPa 0,0 l/m 0,5 km/h (0 Bft) 0 min 0,0 km/h (0 Bft)
26.08.2009 20:34 24,7 C 23,3 C 0,0 UV-I 0,0 C 47 % 49 % 0 % 1015,0 hPa 0,0 l/m 0,5 km/h (0 Bft) 0 min 0,0 km/h (0 Bft)
26.08.2009 20:38 24,7 C 23,2 C 0,0 UV-I 0,0 C 48 % 50 % 0 % 1014,9 hPa 0,0 l/m 0,2 km/h (0 Bft) 0 min 0,0 km/h (0 Bft)
26.08.2009 20:40 24,7 C 23,2 C 0,0 UV-I 0,0 C 48 % 50 % 0 % 1014,9 hPa 0,0 l/m 0,5 km/h (0 Bft) 0 min 0,0 km/h (0 Bft)
26.08.2009 20:42 24,6 C 23,1 C 0,0 UV-I 0,0 C 48 % 50 % 0 % 1014,9 hPa 0,0 l/m 0,2 km/h (0 Bft) 0 min 0,0 km/h (0 Bft)
26.08.2009 20:44 24,6 C 23,1 C 0,0 UV-I 0,0 C 48 % 51 % 0 % 1014,9 hPa 0,0 l/m 0,0 km/h (0 Bft) 0 min 0,0 km/h (0 Bft)
26.08.2009 20:46 24,6 C 23,1 C 0,0 UV-I 0,0 C 48 % 51 % 0 % 1014,9 hPa 0,0 l/m 0,0 km/h (0 Bft) 0 min 0,0 km/h (0 Bft)
26.08.2009 20:48 24,6 C 23,0 C 0,0 UV-I 0,0 C 48 % 51 % 0 % 1014,9 hPa 0,0 l/m 0,0 km/h (0 Bft) 0 min 0,0 km/h (0 Bft)
26.08.2009 20:50 24,6 C 22,9 C 0,0 UV-I 0,0 C 48 % 52 % 0 % 1014,9 hPa 0,0 l/m 0,0 km/h (0 Bft) 0 min 0,0 km/h (0 Bft)
26.08.2009 20:52 24,6 C 22,8 C 0,0 UV-I 0,0 C 48 % 52 % 0 % 1014,9 hPa 0,0 l/m 0,0 km/h (0 Bft) 0 min 0,0 km/h (0 Bft)
26.08.2009 20:54 24,6 C 22,9 C 0,0 UV-I 0,0 C 49 % 52 % 0 % 1014,9 hPa 0,0 l/m 0,0 km/h (0 Bft) 0 min 0,0 km/h (0 Bft)
26.08.2009 20:56 24,6 C 22,7 C 0,0 UV-I 0,0 C 49 % 52 % 0 % 1015,1 hPa 0,0 l/m 0,0 km/h (0 Bft) 0 min 0,0 km/h (0 Bft)
26.08.2009 20:58 24,6 C 22,7 C 0,0 UV-I 0,0 C 49 % 53 % 0 % 1015,1 hPa 0,0 l/m 0,0 km/h (0 Bft) 0 min 0,0 km/h (0 Bft)
26.08.2009 21:00 24,6 C 22,7 C 0,0 UV-I 0,0 C 49 % 53 % 0 % 1015,1 hPa 0,0 l/m 0,0 km/h (0 Bft) 0 min 0,0 km/h (0 Bft)
26.08.2009 21:02 24,5 C 22,7 C 0,0 UV-I 0,0 C 49 % 53 % 0 % 1015,1 hPa 0,0 l/m 0,0 km/h (0 Bft) 0 min 0,0 km/h (0 Bft)
26.08.2009 21:08 24,5 C 22,4 C 0,0 UV-I 0,0 C 50 % 54 % 0 % 1015,1 hPa 0,0 l/m 0,0 km/h (0 Bft) 0 min 0,0 km/h (0 Bft)
26.08.2009 21:10 24,5 C 22,5 C 0,0 UV-I 0,0 C 50 % 54 % 0 % 1015,1 hPa 0,0 l/m 0,0 km/h (0 Bft) 0 min 0,0 km/h (0 Bft)
26.08.2009 21:12 24,5 C 22,4 C 0,0 UV-I 0,0 C 50 % 54 % 0 % 1015,1 hPa 0,0 l/m 0,0 km/h (0 Bft) 0 min 0,0 km/h (0 Bft)
26.08.2009 21:14 24,4 C 22,3 C 0,0 UV-I 0,0 C 50 % 54 % 0 % 1015,1 hPa 0,0 l/m 0,0 km/h (0 Bft) 0 min 0,0 km/h (0 Bft)
26.08.2009 21:16 24,4 C 22,3 C 0,0 UV-I 0,0 C 50 % 54 % 0 % 1015,3 hPa 0,0 l/m 0,0 km/h (0 Bft) 0 min 0,0 km/h (0 Bft)
26.08.2009 21:18 24,4 C 22,3 C 0,0 UV-I 0,0 C 50 % 54 % 0 % 1015,3 hPa 0,0 l/m 0,0 km/h (0 Bft) 0 min 0,0 km/h (0 Bft)
26.08.2009 21:20 24,4 C 22,3 C 0,0 UV-I 0,0 C 50 % 55 % 0 % 1015,3 hPa 0,0 l/m 0,0 km/h (0 Bft) 0 min 0,0 km/h (0 Bft)
26.08.2009 21:22 24,4 C 22,1 C 0,0 UV-I 0,0 C 50 % 55 % 0 % 1015,3 hPa 0,0 l/m 0,0 km/h (0 Bft) 0 min 0,0 km/h (0 Bft)
26.08.2009 21:24 24,4 C 22,0 C 0,0 UV-I 0,0 C 50 % 55 % 0 % 1015,3 hPa 0,0 l/m 0,0 km/h (0 Bft) 0 min 0,0 km/h (0 Bft)
26.08.2009 21:26 24,4 C 22,1 C 0,0 UV-I 0,0 C 51 % 56 % 0 % 1015,3 hPa 0,0 l/m 0,0 km/h (0 Bft) 0 min 0,0 km/h (0 Bft)
26.08.2009 21:28 24,4 C 22,0 C 0,0 UV-I 0,0 C 51 % 56 % 0 % 1015,3 hPa 0,0 l/m 0,0 km/h (0 Bft) 0 min 0,0 km/h (0 Bft)
26.08.2009 21:30 24,4 C 21,9 C 0,0 UV-I 0,0 C 51 % 56 % 0 % 1015,3 hPa 0,0 l/m 0,0 km/h (0 Bft) 0 min 0,0 km/h (0 Bft)
26.08.2009 21:32 24,4 C 21,9 C 0,0 UV-I 0,0 C 51 % 56 % 0 % 1015,3 hPa 0,0 l/m 0,0 km/h (0 Bft) 0 min 0,0 km/h (0 Bft)
26.08.2009 21:34 24,4 C 21,7 C 0,0 UV-I 0,0 C 51 % 56 % 0 % 1015,3 hPa 0,0 l/m 0,0 km/h (0 Bft) 0 min 0,0 km/h (0 Bft)
26.08.2009 21:36 24,2 C 21,7 C 0,0 UV-I 0,0 C 51 % 57 % 0 % 1015,5 hPa 0,0 l/m 0,0 km/h (0 Bft) 0 min 0,0 km/h (0 Bft)
26.08.2009 21:38 24,2 C 21,7 C 0,0 UV-I 0,0 C 51 % 57 % 0 % 1015,5 hPa 0,0 l/m 0,0 km/h (0 Bft) 0 min 0,0 km/h (0 Bft)
26.08.2009 21:40 24,2 C 21,6 C 0,0 UV-I 0,0 C 51 % 57 % 0 % 1015,5 hPa 0,0 l/m 0,0 km/h (0 Bft) 0 min 0,0 km/h (0 Bft)
26.08.2009 21:42 24,3 C 21,5 C 0,0 UV-I 0,0 C 51 % 57 % 0 % 1015,5 hPa 0,0 l/m 0,0 km/h (0 Bft) 0 min 0,0 km/h (0 Bft)
26.08.2009 21:44 24,3 C 21,5 C 0,0 UV-I 0,0 C 51 % 58 % 0 % 1015,5 hPa 0,0 l/m 0,0 km/h (0 Bft) 0 min 2,4 km/h (1 Bft)
26.08.2009 21:46 24,3 C 21,4 C 0,0 UV-I 0,0 C 51 % 58 % 0 % 1015,5 hPa 0,0 l/m 0,0 km/h (0 Bft) 0 min 2,4 km/h (1 Bft)
26.08.2009 21:48 24,2 C 21,3 C 0,0 UV-I 0,0 C 51 % 58 % 0 % 1015,5 hPa 0,0 l/m 0,0 km/h (0 Bft) 0 min 0,0 km/h (0 Bft)
26.08.2009 21:50 24,2 C 21,3 C 0,0 UV-I 0,0 C 51 % 58 % 0 % 1015,5 hPa 0,0 l/m 0,0 km/h (0 Bft) 0 min 0,0 km/h (0 Bft)
26.08.2009 21:52 24,2 C 21,2 C 0,0 UV-I 0,0 C 51 % 58 % 0 % 1015,5 hPa 0,0 l/m 0,0 km/h (0 Bft) 0 min 0,0 km/h (0 Bft)
26.08.2009 21:54 24,2 C 21,1 C 0,0 UV-I 0,0 C 51 % 58 % 0 % 1015,5 hPa 0,0 l/m 0,0 km/h (0 Bft) 0 min 0,0 km/h (0 Bft)
26.08.2009 21:56 24,2 C 21,0 C 0,0 UV-I 0,0 C 52 % 58 % 0 % 1015,6 hPa 0,0 l/m 0,0 km/h (0 Bft) 0 min 0,0 km/h (0 Bft)
26.08.2009 21:58 24,2 C 21,1 C 0,0 UV-I 0,0 C 52 % 59 % 0 % 1015,6 hPa 0,0 l/m 0,0 km/h (0 Bft) 0 min 0,0 km/h (0 Bft)
26.08.2009 22:00 24,2 C 20,9 C 0,0 UV-I 0,0 C 52 % 59 % 0 % 1015,6 hPa 0,0 l/m 0,0 km/h (0 Bft) 0 min 0,0 km/h (0 Bft)
26.08.2009 22:02 24,2 C 20,9 C 0,0 UV-I 0,0 C 52 % 59 % 0 % 1015,6 hPa 0,0 l/m 0,0 km/h (0 Bft) 0 min 0,0 km/h (0 Bft)
26.08.2009 22:04 24,2 C 20,9 C 0,0 UV-I 0,0 C 52 % 59 % 0 % 1015,6 hPa 0,0 l/m 0,0 km/h (0 Bft) 0 min 0,0 km/h (0 Bft)
26.08.2009 22:06 24,1 C 20,8 C 0,0 UV-I 0,0 C 51 % 60 % 0 % 1015,6 hPa 0,0 l/m 0,0 km/h (0 Bft) 0 min 0,0 km/h (0 Bft)
26.08.2009 22:08 24,1 C 20,7 C 0,0 UV-I 0,0 C 52 % 60 % 0 % 1015,6 hPa 0,0 l/m 0,0 km/h (0 Bft) 0 min 0,0 km/h (0 Bft)
26.08.2009 22:10 24,1 C 20,6 C 0,0 UV-I 0,0 C 52 % 60 % 0 % 1015,6 hPa 0,0 l/m 0,0 km/h (0 Bft) 0 min 0,0 km/h (0 Bft)
26.08.2009 22:12 24,1 C 20,7 C 0,0 UV-I 0,0 C 52 % 60 % 0 % 1015,6 hPa 0,0 l/m 0,0 km/h (0 Bft) 0 min 0,0 km/h (0 Bft)
26.08.2009 22:16 24,1 C 20,5 C 0,0 UV-I 0,0 C 52 % 61 % 0 % 1015,5 hPa 0,0 l/m 0,0 km/h (0 Bft) 0 min 0,0 km/h (0 Bft)
26.08.2009 22:18 24,0 C 20,4 C 0,0 UV-I 0,0 C 52 % 61 % 0 % 1015,5 hPa 0,0 l/m 0,0 km/h (0 Bft) 0 min 0,0 km/h (0 Bft)
26.08.2009 22:20 24,0 C 20,4 C 0,0 UV-I 0,0 C 52 % 61 % 0 % 1015,5 hPa 0,0 l/m 0,0 km/h (0 Bft) 0 min 0,0 km/h (0 Bft)
26.08.2009 22:22 24,0 C 20,3 C 0,0 UV-I 0,0 C 52 % 62 % 0 % 1015,5 hPa 0,0 l/m 0,0 km/h (0 Bft) 0 min 0,0 km/h (0 Bft)
26.08.2009 22:28 24,0 C 20,1 C 0,0 UV-I 0,0 C 52 % 63 % 0 % 1015,5 hPa 0,0 l/m 0,0 km/h (0 Bft) 0 min 0,0 km/h (0 Bft)
26.08.2009 22:30 24,0 C 20,0 C 0,0 UV-I 0,0 C 52 % 63 % 0 % 1015,5 hPa 0,0 l/m 0,0 km/h (0 Bft) 0 min 0,0 km/h (0 Bft)
26.08.2009 22:32 24,0 C 20,0 C 0,0 UV-I 0,0 C 52 % 63 % 0 % 1015,5 hPa 0,0 l/m 0,0 km/h (0 Bft) 0 min 0,0 km/h (0 Bft)
26.08.2009 22:34 23,9 C 20,0 C 0,0 UV-I 0,0 C 52 % 63 % 0 % 1015,5 hPa 0,0 l/m 0,0 km/h (0 Bft) 0 min 0,0 km/h (0 Bft)
26.08.2009 22:36 23,9 C 19,9 C 0,0 UV-I 0,0 C 52 % 63 % 0 % 1015,8 hPa 0,0 l/m 0,0 km/h (0 Bft) 0 min 0,0 km/h (0 Bft)
26.08.2009 22:38 23,9 C 19,8 C 0,0 UV-I 0,0 C 53 % 64 % 0 % 1015,8 hPa 0,0 l/m 0,0 km/h (0 Bft) 0 min 0,0 km/h (0 Bft)
26.08.2009 22:40 23,9 C 19,7 C 0,0 UV-I 0,0 C 53 % 64 % 0 % 1015,8 hPa 0,0 l/m 0,0 km/h (0 Bft) 0 min 0,0 km/h (0 Bft)
26.08.2009 22:42 23,9 C 19,7 C 0,0 UV-I 0,0 C 53 % 64 % 0 % 1015,8 hPa 0,0 l/m 0,0 km/h (0 Bft) 0 min 0,0 km/h (0 Bft)
26.08.2009 22:44 23,8 C 19,6 C 0,0 UV-I 0,0 C 53 % 64 % 0 % 1015,8 hPa 0,0 l/m 0,0 km/h (0 Bft) 0 min 0,0 km/h (0 Bft)
26.08.2009 22:46 23,8 C 19,7 C 0,0 UV-I 0,0 C 53 % 64 % 0 % 1015,8 hPa 0,0 l/m 0,0 km/h (0 Bft) 0 min 0,0 km/h (0 Bft)
26.08.2009 22:48 23,8 C 19,6 C 0,0 UV-I 0,0 C 53 % 64 % 0 % 1015,8 hPa 0,0 l/m 0,0 km/h (0 Bft) 0 min 0,0 km/h (0 Bft)
26.08.2009 22:50 23,8 C 19,5 C 0,0 UV-I 0,0 C 53 % 65 % 0 % 1015,8 hPa 0,0 l/m 0,2 km/h (0 Bft) 0 min 0,0 km/h (0 Bft)
26.08.2009 22:54 23,8 C 19,5 C 0,0 UV-I 0,0 C 53 % 65 % 0 % 1015,8 hPa 0,0 l/m 0,0 km/h (0 Bft) 0 min 0,0 km/h (0 Bft)
26.08.2009 22:56 23,8 C 19,4 C 0,0 UV-I 0,0 C 53 % 65 % 0 % 1015,7 hPa 0,0 l/m 0,0 km/h (0 Bft) 0 min 0,0 km/h (0 Bft)
26.08.2009 22:58 23,8 C 19,3 C 0,0 UV-I 0,0 C 53 % 65 % 0 % 1015,7 hPa 0,0 l/m 0,0 km/h (0 Bft) 0 min 0,0 km/h (0 Bft)
26.08.2009 23:00 23,8 C 19,2 C 0,0 UV-I 0,0 C 53 % 66 % 0 % 1015,7 hPa 0,0 l/m 0,0 km/h (0 Bft) 0 min 0,0 km/h (0 Bft)
26.08.2009 23:02 23,8 C 19,3 C 0,0 UV-I 0,0 C 53 % 66 % 0 % 1015,7 hPa 0,0 l/m 0,0 km/h (0 Bft) 0 min 0,0 km/h (0 Bft)
26.08.2009 23:06 23,7 C 19,1 C 0,0 UV-I 0,0 C 53 % 67 % 0 % 1015,7 hPa 0,0 l/m 0,0 km/h (0 Bft) 0 min 0,0 km/h (0 Bft)
26.08.2009 23:08 23,7 C 19,1 C 0,0 UV-I 0,0 C 53 % 67 % 0 % 1015,7 hPa 0,0 l/m 0,0 km/h (0 Bft) 0 min 0,0 km/h (0 Bft)
26.08.2009 23:10 23,7 C 19,1 C 0,0 UV-I 0,0 C 53 % 67 % 0 % 1015,7 hPa 0,0 l/m 0,0 km/h (0 Bft) 0 min 0,0 km/h (0 Bft)
26.08.2009 23:12 23,7 C 19,1 C 0,0 UV-I 0,0 C 53 % 67 % 0 % 1015,7 hPa 0,0 l/m 0,0 km/h (0 Bft) 0 min 0,0 km/h (0 Bft)
26.08.2009 23:14 23,7 C 18,9 C 0,0 UV-I 0,0 C 53 % 67 % 0 % 1015,7 hPa 0,0 l/m 0,0 km/h (0 Bft) 0 min 0,0 km/h (0 Bft)
26.08.2009 23:18 23,7 C 18,8 C 0,0 UV-I 0,0 C 53 % 67 % 0 % 1015,8 hPa 0,0 l/m 0,0 km/h (0 Bft) 0 min 0,0 km/h (0 Bft)
26.08.2009 23:22 23,6 C 18,8 C 0,0 UV-I 0,0 C 54 % 68 % 0 % 1015,8 hPa 0,0 l/m 0,2 km/h (0 Bft) 0 min 2,4 km/h (1 Bft)
26.08.2009 23:24 23,6 C 18,8 C 0,0 UV-I 0,0 C 54 % 68 % 0 % 1015,8 hPa 0,0 l/m 0,5 km/h (0 Bft) 0 min 3,1 km/h (1 Bft)
26.08.2009 23:26 23,6 C 18,7 C 0,0 UV-I 0,0 C 54 % 68 % 0 % 1015,8 hPa 0,0 l/m 0,5 km/h (0 Bft) 0 min 3,1 km/h (1 Bft)
26.08.2009 23:28 23,6 C 18,7 C 0,0 UV-I 0,0 C 54 % 69 % 0 % 1015,8 hPa 0,0 l/m 0,5 km/h (0 Bft) 0 min 2,9 km/h (1 Bft)
26.08.2009 23:30 23,6 C 18,6 C 0,0 UV-I 0,0 C 54 % 69 % 0 % 1015,8 hPa 0,0 l/m 0,5 km/h (0 Bft) 0 min 2,9 km/h (1 Bft)
26.08.2009 23:32 23,6 C 18,7 C 0,0 UV-I 0,0 C 54 % 69 % 0 % 1015,8 hPa 0,0 l/m 0,5 km/h (0 Bft) 0 min 0,0 km/h (0 Bft)
26.08.2009 23:34 23,6 C 18,7 C 0,0 UV-I 0,0 C 54 % 69 % 0 % 1015,8 hPa 0,0 l/m 0,2 km/h (0 Bft) 0 min 0,0 km/h (0 Bft)
26.08.2009 23:36 23,6 C 18,6 C 0,0 UV-I 0,0 C 54 % 69 % 0 % 1015,8 hPa 0,0 l/m 0,2 km/h (0 Bft) 0 min 0,0 km/h (0 Bft)
26.08.2009 23:38 23,6 C 18,5 C 0,0 UV-I 0,0 C 54 % 70 % 0 % 1015,8 hPa 0,0 l/m 0,2 km/h (0 Bft) 0 min 0,0 km/h (0 Bft)
26.08.2009 23:40 23,6 C 18,5 C 0,0 UV-I 0,0 C 54 % 70 % 0 % 1015,8 hPa 0,0 l/m 0,0 km/h (0 Bft) 0 min 0,0 km/h (0 Bft)
26.08.2009 23:42 23,6 C 18,4 C 0,0 UV-I 0,0 C 54 % 70 % 0 % 1015,8 hPa 0,0 l/m 0,0 km/h (0 Bft) 0 min 0,0 km/h (0 Bft)
26.08.2009 23:44 23,6 C 18,5 C 0,0 UV-I 0,0 C 54 % 70 % 0 % 1015,8 hPa 0,0 l/m 0,0 km/h (0 Bft) 0 min 0,0 km/h (0 Bft)
26.08.2009 23:46 23,6 C 18,4 C 0,0 UV-I 0,0 C 54 % 70 % 0 % 1015,8 hPa 0,0 l/m 0,0 km/h (0 Bft) 0 min 0,0 km/h (0 Bft)
26.08.2009 23:48 23,6 C 18,4 C 0,0 UV-I 0,0 C 54 % 70 % 0 % 1015,8 hPa 0,0 l/m 0,0 km/h (0 Bft) 0 min 0,0 km/h (0 Bft)
26.08.2009 23:50 23,5 C 18,3 C 0,0 UV-I 0,0 C 54 % 71 % 0 % 1015,8 hPa 0,0 l/m 0,0 km/h (0 Bft) 0 min 0,0 km/h (0 Bft)
26.08.2009 23:52 23,5 C 18,3 C 0,0 UV-I 0,0 C 54 % 71 % 0 % 1015,8 hPa 0,0 l/m 0,0 km/h (0 Bft) 0 min 0,0 km/h (0 Bft)
26.08.2009 23:54 23,5 C 18,3 C 0,0 UV-I 0,0 C 54 % 71 % 0 % 1015,8 hPa 0,0 l/m 0,0 km/h (0 Bft) 0 min 0,0 km/h (0 Bft)
26.08.2009 23:56 23,5 C 18,2 C 0,0 UV-I 0,0 C 54 % 71 % 0 % 1015,7 hPa 0,0 l/m 0,0 km/h (0 Bft) 0 min 0,0 km/h (0 Bft)
26.08.2009 23:58 23,5 C 18,2 C 0,0 UV-I 0,0 C 54 % 71 % 0 % 1015,7 hPa 0,0 l/m 0,0 km/h (0 Bft) 0 min 0,0 km/h (0 Bft)
_ Min-Zeit 07:04 06:48 00:04 00:04 16:10 14:59 00:04 00:04 - 00:04 - 00:04
Minimum _ 21,2 C 12,1 C 0,0 UV-I 0,0 C 43 % 37 % 0 % 1014,8 hPa - 0,0 km/h (0 Bft) - 0,0 km/h (0 Bft)
_ Max-Zeit 16:54 14:39 11:30 10:18 00:04 07:02 09:54 14:39 00:04 11:10 09:54 13:46
Maximum _ 26,6 C 27,0 C 13,6 UV-I 6,6 C 60 % 93 % 100 % 1020,1 hPa 0,0 l/m 9,9 km/h
O-NO (2 Bft)
2 min 29,6 km/h
NO (5 Bft)
Durchschnitt _ 23,3 C 19,5 C 2,4 UV-I 1,1 C 53 % 67 % 28 % 1016,2 hPa #0,0 l/m 2,2 km/h (1 Bft) #3:54 h 4,1 km/h (1 Bft)
© 2012 W. Hausmann